Time,TemperatureF,DewpointF,PressureIn,WindDirection,WindDirectionDegrees,WindSpeedMPH,WindSpeedGustMPH,Humidity,HourlyPrecipIn,Conditions,Clouds,dailyrainin,SoftwareType,DateUTC
2013-11-09 00:00:00,50.5,25.9,29.21,South,191,13.2,13.2,38,0.00,,CLR,0.00,VWS V14.01,2013-11-09 06:00:00,
2013-11-09 00:01:00,50.5,25.9,29.21,SW,219,8.7,12.8,38,0.00,,CLR,0.00,VWS V14.01,2013-11-09 06:01:00,
2013-11-09 00:02:00,50.5,25.9,29.21,SSW,213,12.8,12.8,38,0.00,,CLR,0.00,VWS V14.01,2013-11-09 06:02:00,
2013-11-09 00:03:00,50.4,25.7,29.21,SSW,195,15.9,17.4,38,0.00,,CLR,0.00,VWS V14.01,2013-11-09 06:03:00,
2013-11-09 00:05:00,50.4,25.7,29.21,SSW,206,15.4,17.4,38,0.00,,CLR,0.00,VWS V14.01,2013-11-09 06:05:00,
2013-11-09 00:06:00,50.5,25.9,29.21,SSW,203,17.0,17.4,38,0.00,,CLR,0.00,VWS V14.01,2013-11-09 06:06:00,
2013-11-09 00:07:00,50.5,25.9,29.21,SSW,213,12.3,13.2,38,0.00,,CLR,0.00,VWS V14.01,2013-11-09 06:07:00,
2013-11-09 00:08:00,50.5,25.9,29.21,SSW,197,10.5,13.2,38,0.00,,CLR,0.00,VWS V14.01,2013-11-09 06:08:00,
2013-11-09 00:11:00,50.4,25.7,29.21,SSW,195,13.2,17.9,38,0.00,,CLR,0.00,VWS V14.01,2013-11-09 06:11:00,
2013-11-09 00:12:00,50.4,25.7,29.21,SSW,201,12.8,15.0,38,0.00,,CLR,0.00,VWS V14.01,2013-11-09 06:12:00,
2013-11-09 00:13:00,50.2,25.6,29.21,South,179,10.5,18.8,38,0.00,,CLR,0.00,VWS V14.01,2013-11-09 06:13:00,
2013-11-09 00:14:00,50.2,25.6,29.21,SW,224,17.4,20.1,38,0.00,,CLR,0.00,VWS V14.01,2013-11-09 06:14:00,
2013-11-09 00:18:00,50.4,25.7,29.21,SSW,203,13.6,16.8,38,0.00,,CLR,0.00,VWS V14.01,2013-11-09 06:18:00,
2013-11-09 00:19:00,50.4,25.7,29.21,SW,219,13.6,17.4,38,0.00,,CLR,0.00,VWS V14.01,2013-11-09 06:19:00,
2013-11-09 00:20:00,50.4,25.7,29.21,SSW,194,17.0,17.0,38,0.00,,CLR,0.00,VWS V14.01,2013-11-09 06:20:00,
2013-11-09 00:23:00,50.4,25.7,29.21,SSW,200,20.6,20.6,38,0.00,,CLR,0.00,VWS V14.01,2013-11-09 06:23:00,
2013-11-09 00:24:00,50.4,25.7,29.21,South,181,19.7,20.6,38,0.00,,CLR,0.00,VWS V14.01,2013-11-09 06:24:00,
2013-11-09 00:25:00,50.5,25.9,29.21,SSW,198,17.4,17.4,38,0.00,,CLR,0.00,VWS V14.01,2013-11-09 06:25:00,
2013-11-09 00:29:00,50.5,25.9,29.21,SSW,209,11.0,13.2,38,0.00,,CLR,0.00,VWS V14.01,2013-11-09 06:29:00,
2013-11-09 00:30:00,50.5,25.9,29.21,SSE,163,17.4,17.4,38,0.00,,CLR,0.00,VWS V14.01,2013-11-09 06:30:00,
2013-11-09 00:31:00,50.5,25.9,29.21,SSW,208,12.3,15.0,38,0.00,,CLR,0.00,VWS V14.01,2013-11-09 06:31:00,
2013-11-09 00:32:00,50.5,25.9,29.21,SSW,193,15.0,15.0,38,0.00,,CLR,0.00,VWS V14.01,2013-11-09 06:32:00,
2013-11-09 00:34:00,50.4,25.7,29.21,SSW,206,21.5,21.5,38,0.00,,CLR,0.00,VWS V14.01,2013-11-09 06:34:00,
2013-11-09 00:35:00,50.4,25.7,29.21,South,189,17.4,21.5,38,0.00,,CLR,0.00,VWS V14.01,2013-11-09 06:35:00,
2013-11-09 00:36:00,50.4,25.7,29.21,SSW,200,13.2,13.2,38,0.00,,CLR,0.00,VWS V14.01,2013-11-09 06:36:00,
2013-11-09 00:37:00,50.4,25.7,29.21,SSW,209,12.3,12.3,38,0.00,,CLR,0.00,VWS V14.01,2013-11-09 06:37:00,
2013-11-09 00:39:00,50.4,25.7,29.21,SSW,196,15.0,15.0,38,0.00,,CLR,0.00,VWS V14.01,2013-11-09 06:39:00,
2013-11-09 00:40:00,50.4,25.7,29.21,SSW,196,15.0,15.0,38,0.00,,CLR,0.00,VWS V14.01,2013-11-09 06:40:00,
2013-11-09 00:41:00,50.4,25.7,29.21,SSW,192,11.0,13.2,38,0.00,,CLR,0.00,VWS V14.01,2013-11-09 06:41:00,
2013-11-09 00:43:00,50.2,25.6,29.21,SSW,211,12.3,16.8,38,0.00,,CLR,0.00,VWS V14.01,2013-11-09 06:43:00,
2013-11-09 00:46:00,50.2,25.6,29.21,SW,232,14.5,15.4,38,0.00,,CLR,0.00,VWS V14.01,2013-11-09 06:46:00,
2013-11-09 00:47:00,50.2,25.6,29.21,South,190,15.0,15.0,38,0.00,,CLR,0.00,VWS V14.01,2013-11-09 06:47:00,
2013-11-09 00:48:00,50.2,25.6,29.21,SSW,199,15.4,15.4,38,0.00,,CLR,0.00,VWS V14.01,2013-11-09 06:48:00,
2013-11-09 00:52:00,50.2,25.6,29.21,SW,234,11.4,15.0,38,0.00,,CLR,0.00,VWS V14.01,2013-11-09 06:52:00,
2013-11-09 00:53:00,50.4,25.7,29.21,SSW,204,12.8,15.0,38,0.00,,CLR,0.00,VWS V14.01,2013-11-09 06:53:00,
2013-11-09 00:54:00,50.2,25.6,29.21,SSW,209,15.4,15.4,38,0.00,,CLR,0.00,VWS V14.01,2013-11-09 06:54:00,
2013-11-09 00:57:00,50.2,25.6,29.21,SSW,208,11.0,16.8,38,0.00,,CLR,0.00,VWS V14.01,2013-11-09 06:57:00,
2013-11-09 00:58:00,50.2,25.6,29.21,South,191,16.8,16.8,38,0.00,,CLR,0.00,VWS V14.01,2013-11-09 06:58:00,
2013-11-09 00:59:00,50.2,25.6,29.21,South,185,12.8,12.8,38,0.00,,CLR,0.00,VWS V14.01,2013-11-09 06:59:00,
2013-11-09 01:02:00,50.2,25.6,29.21,SSW,202,15.0,16.3,38,0.00,,CLR,0.00,VWS V14.01,2013-11-09 07:02:00,
2013-11-09 01:03:00,50.2,25.6,29.21,South,190,12.8,12.8,38,0.00,,CLR,0.00,VWS V14.01,2013-11-09 07:03:00,
2013-11-09 01:04:00,50.2,25.6,29.21,SSW,209,12.8,12.8,38,0.00,,CLR,0.00,VWS V14.01,2013-11-09 07:04:00,
2013-11-09 01:05:00,50.2,25.6,29.21,SSW,203,13.6,15.4,38,0.00,,CLR,0.00,VWS V14.01,2013-11-09 07:05:00,
2013-11-09 01:07:00,50.2,25.6,29.21,SW,219,15.0,16.8,38,0.00,,CLR,0.00,VWS V14.01,2013-11-09 07:07:00,
2013-11-09 01:08:00,50.2,25.6,29.21,SSE,158,10.1,16.8,38,0.00,,CLR,0.00,VWS V14.01,2013-11-09 07:08:00,
2013-11-09 01:09:00,50.2,25.6,29.21,SSW,193,15.0,15.4,38,0.00,,CLR,0.00,VWS V14.01,2013-11-09 07:09:00,
2013-11-09 01:11:00,50.2,25.6,29.21,SSW,193,13.2,15.0,38,0.00,,CLR,0.00,VWS V14.01,2013-11-09 07:11:00,
2013-11-09 01:13:00,50.2,25.6,29.21,SSW,209,10.5,13.2,38,0.00,,CLR,0.00,VWS V14.01,2013-11-09 07:13:00,
2013-11-09 01:14:00,50.2,25.6,29.21,SSW,208,14.1,15.4,38,0.00,,CLR,0.00,VWS V14.01,2013-11-09 07:14:00,
2013-11-09 01:16:00,50.2,25.6,29.21,SSW,200,10.5,16.8,38,0.00,,CLR,0.00,VWS V14.01,2013-11-09 07:16:00,
2013-11-09 01:17:00,50.2,25.6,29.21,SSW,206,11.9,13.2,38,0.00,,CLR,0.00,VWS V14.01,2013-11-09 07:17:00,
2013-11-09 01:19:00,50.4,25.7,29.21,SSW,192,13.2,15.4,38,0.00,,CLR,0.00,VWS V14.01,2013-11-09 07:19:00,
2013-11-09 01:20:00,50.4,25.7,29.21,South,183,12.8,13.2,38,0.00,,CLR,0.00,VWS V14.01,2013-11-09 07:20:00,
2013-11-09 01:21:00,50.4,25.7,29.21,SW,214,11.0,11.0,38,0.00,,CLR,0.00,VWS V14.01,2013-11-09 07:21:00,
2013-11-09 01:24:00,50.4,25.7,29.21,SW,224,15.4,15.4,38,0.00,,CLR,0.00,VWS V14.01,2013-11-09 07:24:00,
2013-11-09 01:25:00,50.4,25.7,29.21,SSW,199,11.0,15.0,38,0.00,,CLR,0.00,VWS V14.01,2013-11-09 07:25:00,
2013-11-09 01:26:00,50.4,25.7,29.21,SW,223,13.2,17.0,38,0.00,,CLR,0.00,VWS V14.01,2013-11-09 07:26:00,
2013-11-09 01:28:00,50.4,25.7,29.21,SW,218,16.8,16.8,38,0.00,,CLR,0.00,VWS V14.01,2013-11-09 07:28:00,
2013-11-09 01:30:00,50.7,26.0,29.21,South,187,12.8,15.0,38,0.00,,CLR,0.00,VWS V14.01,2013-11-09 07:30:00,
2013-11-09 01:31:00,50.7,26.0,29.21,SW,215,20.6,20.6,38,0.00,,CLR,0.00,VWS V14.01,2013-11-09 07:31:00,
2013-11-09 01:33:00,50.9,26.2,29.21,SW,220,14.5,15.4,38,0.00,,CLR,0.00,VWS V14.01,2013-11-09 07:33:00,
2013-11-09 01:35:00,51.1,26.4,29.21,South,175,12.8,16.8,38,0.00,,CLR,0.00,VWS V14.01,2013-11-09 07:35:00,
2013-11-09 01:36:00,51.1,26.4,29.21,SW,230,15.4,15.4,38,0.00,,CLR,0.00,VWS V14.01,2013-11-09 07:36:00,
2013-11-09 01:39:00,51.1,26.4,29.21,SW,216,13.6,16.3,38,0.00,,CLR,0.00,VWS V14.01,2013-11-09 07:39:00,
2013-11-09 01:40:00,51.1,26.4,29.21,WSW,244,15.9,15.9,38,0.00,,CLR,0.00,VWS V14.01,2013-11-09 07:40:00,
2013-11-09 01:41:00,51.1,26.4,29.21,SSW,197,15.4,15.9,38,0.00,,CLR,0.00,VWS V14.01,2013-11-09 07:41:00,
2013-11-09 01:43:00,51.3,26.5,29.21,SSW,212,18.3,20.1,38,0.00,,CLR,0.00,VWS V14.01,2013-11-09 07:43:00,
2013-11-09 01:44:00,51.3,26.5,29.21,SW,233,15.4,17.4,38,0.00,,CLR,0.00,VWS V14.01,2013-11-09 07:44:00,
2013-11-09 01:45:00,51.3,26.5,29.21,SW,214,13.2,15.4,38,0.00,,CLR,0.00,VWS V14.01,2013-11-09 07:45:00,
2013-11-09 01:47:00,51.4,26.7,29.21,SW,232,16.3,17.9,38,0.00,,CLR,0.00,VWS V14.01,2013-11-09 07:47:00,
2013-11-09 01:48:00,51.4,26.7,29.21,WSW,239,19.2,19.2,38,0.00,,CLR,0.00,VWS V14.01,2013-11-09 07:48:00,
2013-11-09 01:49:00,51.4,26.7,29.21,SSW,204,17.4,19.2,38,0.00,,CLR,0.00,VWS V14.01,2013-11-09 07:49:00,
2013-11-09 01:50:00,51.4,26.7,29.21,SW,217,10.5,13.2,38,0.00,,CLR,0.00,VWS V14.01,2013-11-09 07:50:00,
2013-11-09 01:52:00,51.4,26.7,29.21,WSW,240,15.0,17.0,38,0.00,,CLR,0.00,VWS V14.01,2013-11-09 07:52:00,
2013-11-09 01:54:00,51.3,26.5,29.21,SSW,210,16.3,18.3,38,0.00,,CLR,0.00,VWS V14.01,2013-11-09 07:54:00,
2013-11-09 01:55:00,51.3,26.5,29.21,SW,216,15.4,15.4,38,0.00,,CLR,0.00,VWS V14.01,2013-11-09 07:55:00,
2013-11-09 01:56:00,51.3,26.5,29.21,SW,222,13.6,15.4,38,0.00,,CLR,0.00,VWS V14.01,2013-11-09 07:56:00,
2013-11-09 01:57:00,51.1,26.4,29.21,SW,217,14.5,16.3,38,0.00,,CLR,0.00,VWS V14.01,2013-11-09 07:57:00,
2013-11-09 01:59:00,51.1,26.4,29.21,WSW,238,15.4,15.4,38,0.00,,CLR,0.00,VWS V14.01,2013-11-09 07:59:00,
2013-11-09 02:00:00,51.1,26.4,29.21,SW,225,18.3,18.3,38,0.00,,CLR,0.00,VWS V14.01,2013-11-09 08:00:00,
2013-11-09 02:01:00,51.1,26.4,29.21,SW,230,22.8,22.8,38,0.00,,CLR,0.00,VWS V14.01,2013-11-09 08:01:00,
2013-11-09 02:02:00,51.3,26.5,29.21,SW,228,17.4,22.8,38,0.00,,CLR,0.00,VWS V14.01,2013-11-09 08:02:00,
2013-11-09 02:05:00,51.3,26.5,29.21,SW,214,13.2,15.0,38,0.00,,CLR,0.00,VWS V14.01,2013-11-09 08:05:00,
2013-11-09 02:06:00,51.3,26.5,29.21,SW,226,12.8,15.0,38,0.00,,CLR,0.00,VWS V14.01,2013-11-09 08:06:00,
2013-11-09 02:07:00,51.1,26.4,29.21,SSW,213,11.9,15.9,38,0.00,,CLR,0.00,VWS V14.01,2013-11-09 08:07:00,
2013-11-09 02:10:00,50.9,26.2,29.18,SW,216,16.8,17.4,38,0.00,,CLR,0.00,VWS V14.01,2013-11-09 08:10:00,
2013-11-09 02:11:00,50.9,26.2,29.18,SW,231,15.0,16.8,38,0.00,,CLR,0.00,VWS V14.01,2013-11-09 08:11:00,
2013-11-09 02:12:00,50.9,26.2,29.18,SW,234,12.8,15.0,38,0.00,,CLR,0.00,VWS V14.01,2013-11-09 08:12:00,
2013-11-09 02:15:00,50.7,26.0,29.18,SW,230,11.9,11.9,38,0.00,,CLR,0.00,VWS V14.01,2013-11-09 08:15:00,
2013-11-09 02:17:00,50.7,26.0,29.18,SW,220,10.5,10.5,38,0.00,,CLR,0.00,VWS V14.01,2013-11-09 08:17:00,
2013-11-09 02:18:00,50.7,26.0,29.18,SW,214,8.3,10.5,38,0.00,,CLR,0.00,VWS V14.01,2013-11-09 08:18:00,
2013-11-09 02:19:00,50.7,26.0,29.18,SW,235,10.1,11.9,38,0.00,,CLR,0.00,VWS V14.01,2013-11-09 08:19:00,
2013-11-09 02:21:00,50.5,25.9,29.18,SW,229,13.2,14.1,38,0.00,,CLR,0.00,VWS V14.01,2013-11-09 08:21:00,
2013-11-09 02:22:00,50.5,25.9,29.18,SW,223,13.2,15.0,38,0.00,,CLR,0.00,VWS V14.01,2013-11-09 08:22:00,
2013-11-09 02:23:00,50.5,25.9,29.18,SW,233,15.9,16.3,38,0.00,,CLR,0.00,VWS V14.01,2013-11-09 08:23:00,
2013-11-09 02:24:00,50.5,25.9,29.21,SW,216,13.2,15.4,38,0.00,,CLR,0.00,VWS V14.01,2013-11-09 08:24:00,
2013-11-09 02:26:00,50.5,25.9,29.21,SW,233,13.2,13.2,38,0.00,,CLR,0.00,VWS V14.01,2013-11-09 08:26:00,
2013-11-09 02:27:00,50.5,25.9,29.21,SW,233,11.0,13.2,38,0.00,,CLR,0.00,VWS V14.01,2013-11-09 08:27:00,
2013-11-09 02:28:00,50.5,25.9,29.21,SW,218,13.2,13.2,38,0.00,,CLR,0.00,VWS V14.01,2013-11-09 08:28:00,
2013-11-09 02:29:00,50.5,25.9,29.21,SW,229,10.1,10.1,38,0.00,,CLR,0.00,VWS V14.01,2013-11-09 08:29:00,
2013-11-09 02:30:00,50.5,25.9,29.21,WSW,238,10.5,15.4,38,0.00,,CLR,0.00,VWS V14.01,2013-11-09 08:30:00,
2013-11-09 02:33:00,50.4,25.7,29.21,SW,234,15.4,15.4,38,0.00,,CLR,0.00,VWS V14.01,2013-11-09 08:33:00,
2013-11-09 02:34:00,50.4,25.7,29.21,SSW,205,12.8,12.8,38,0.00,,CLR,0.00,VWS V14.01,2013-11-09 08:34:00,
2013-11-09 02:36:00,50.2,25.6,29.21,SW,224,10.5,11.4,38,0.00,,CLR,0.00,VWS V14.01,2013-11-09 08:36:00,
2013-11-09 02:37:00,50.4,25.7,29.21,SW,227,10.5,12.8,38,0.00,,CLR,0.00,VWS V14.01,2013-11-09 08:37:00,
2013-11-09 02:38:00,50.4,25.7,29.21,SW,235,10.1,12.8,38,0.00,,CLR,0.00,VWS V14.01,2013-11-09 08:38:00,
2013-11-09 02:40:00,50.2,25.6,29.21,SW,236,13.2,16.3,38,0.00,,CLR,0.00,VWS V14.01,2013-11-09 08:40:00,
2013-11-09 02:41:00,50.2,25.6,29.21,SW,226,8.7,14.5,38,0.00,,CLR,0.00,VWS V14.01,2013-11-09 08:41:00,
2013-11-09 02:43:00,50.2,25.6,29.21,SW,231,13.2,15.4,38,0.00,,CLR,0.00,VWS V14.01,2013-11-09 08:43:00,
2013-11-09 02:44:00,50.2,25.6,29.21,SSW,208,11.9,11.9,38,0.00,,CLR,0.00,VWS V14.01,2013-11-09 08:44:00,
2013-11-09 02:45:00,50.2,25.6,29.21,SW,235,16.8,16.8,38,0.00,,CLR,0.00,VWS V14.01,2013-11-09 08:45:00,
2013-11-09 02:47:00,50.2,25.6,29.21,SW,229,10.5,16.3,38,0.00,,CLR,0.00,VWS V14.01,2013-11-09 08:47:00,
2013-11-09 02:48:00,50.2,25.6,29.21,SW,221,13.2,13.2,38,0.00,,CLR,0.00,VWS V14.01,2013-11-09 08:48:00,
2013-11-09 02:49:00,50.4,25.7,29.21,SSW,210,10.5,12.8,38,0.00,,CLR,0.00,VWS V14.01,2013-11-09 08:49:00,
2013-11-09 02:50:00,50.4,25.7,29.21,SW,229,8.7,10.1,38,0.00,,CLR,0.00,VWS V14.01,2013-11-09 08:50:00,
2013-11-09 02:53:00,50.2,25.6,29.21,WSW,250,11.4,17.4,38,0.00,,CLR,0.00,VWS V14.01,2013-11-09 08:53:00,
2013-11-09 02:54:00,50.2,25.6,29.21,WSW,241,12.8,14.1,38,0.00,,CLR,0.00,VWS V14.01,2013-11-09 08:54:00,
2013-11-09 02:55:00,50.4,25.7,29.21,WSW,247,5.4,8.1,38,0.00,,CLR,0.00,VWS V14.01,2013-11-09 08:55:00,
2013-11-09 02:56:00,50.2,25.6,29.21,WSW,237,15.0,15.0,38,0.00,,CLR,0.00,VWS V14.01,2013-11-09 08:56:00,
2013-11-09 02:58:00,50.2,25.6,29.21,SW,230,10.5,10.5,38,0.00,,CLR,0.00,VWS V14.01,2013-11-09 08:58:00,
2013-11-09 03:00:00,50.2,25.6,29.21,SW,227,10.5,12.3,38,0.00,,CLR,0.00,VWS V14.01,2013-11-09 09:00:00,
2013-11-09 03:01:00,50.2,25.6,29.21,WSW,240,8.7,10.5,38,0.00,,CLR,0.00,VWS V14.01,2013-11-09 09:01:00,
2013-11-09 03:04:00,50.0,25.4,29.21,SW,233,15.0,15.0,38,0.00,,CLR,0.00,VWS V14.01,2013-11-09 09:04:00,
2013-11-09 03:05:00,50.0,25.4,29.21,WSW,238,12.8,15.0,38,0.00,,CLR,0.00,VWS V14.01,2013-11-09 09:05:00,
2013-11-09 03:06:00,50.0,25.4,29.21,SW,232,17.4,17.4,38,0.00,,CLR,0.00,VWS V14.01,2013-11-09 09:06:00,
2013-11-09 03:08:00,50.0,25.4,29.21,SW,222,11.9,12.8,38,0.00,,CLR,0.00,VWS V14.01,2013-11-09 09:08:00,
2013-11-09 03:10:00,49.8,25.2,29.21,SW,221,10.1,10.1,38,0.00,,CLR,0.00,VWS V14.01,2013-11-09 09:10:00,
2013-11-09 03:11:00,49.8,25.2,29.21,WSW,245,12.8,12.8,38,0.00,,CLR,0.00,VWS V14.01,2013-11-09 09:11:00,
2013-11-09 03:14:00,49.8,25.2,29.21,WSW,239,10.1,11.9,38,0.00,,CLR,0.00,VWS V14.01,2013-11-09 09:14:00,
2013-11-09 03:16:00,49.8,25.2,29.21,SW,229,12.8,12.8,38,0.00,,CLR,0.00,VWS V14.01,2013-11-09 09:16:00,
2013-11-09 03:17:00,49.6,25.1,29.21,WSW,240,8.3,12.3,38,0.00,,CLR,0.00,VWS V14.01,2013-11-09 09:17:00,
2013-11-09 03:18:00,49.6,25.1,29.21,SSW,209,11.0,11.0,38,0.00,,CLR,0.00,VWS V14.01,2013-11-09 09:18:00,
2013-11-09 03:19:00,49.6,25.1,29.21,SW,234,12.8,14.1,38,0.00,,CLR,0.00,VWS V14.01,2013-11-09 09:19:00,
2013-11-09 03:21:00,49.6,25.1,29.21,SW,225,17.4,17.4,38,0.00,,CLR,0.00,VWS V14.01,2013-11-09 09:21:00,
2013-11-09 03:22:00,49.8,25.2,29.21,SW,232,10.5,17.4,38,0.00,,CLR,0.00,VWS V14.01,2013-11-09 09:22:00,
2013-11-09 03:24:00,49.6,25.1,29.21,WSW,245,12.8,12.8,38,0.00,,CLR,0.00,VWS V14.01,2013-11-09 09:24:00,
2013-11-09 03:26:00,49.6,25.1,29.21,WSW,237,10.1,11.0,38,0.00,,CLR,0.00,VWS V14.01,2013-11-09 09:26:00,
2013-11-09 03:28:00,49.5,24.9,29.21,WSW,251,8.7,10.5,38,0.00,,CLR,0.00,VWS V14.01,2013-11-09 09:28:00,
2013-11-09 03:29:00,49.5,24.9,29.21,SW,232,8.7,8.7,38,0.00,,CLR,0.00,VWS V14.01,2013-11-09 09:29:00,
2013-11-09 03:30:00,49.5,24.9,29.21,SSW,213,11.0,11.0,38,0.00,,CLR,0.00,VWS V14.01,2013-11-09 09:30:00,
2013-11-09 03:33:00,49.3,24.8,29.21,SW,233,12.8,15.0,38,0.00,,CLR,0.00,VWS V14.01,2013-11-09 09:33:00,
2013-11-09 03:35:00,49.3,24.8,29.21,WSW,245,6.7,9.6,38,0.00,,CLR,0.00,VWS V14.01,2013-11-09 09:35:00,
2013-11-09 03:37:00,49.3,24.8,29.21,SW,236,8.1,8.3,38,0.00,,CLR,0.00,VWS V14.01,2013-11-09 09:37:00,
2013-11-09 03:38:00,49.1,24.6,29.21,SW,236,12.8,12.8,38,0.00,,CLR,0.00,VWS V14.01,2013-11-09 09:38:00,
2013-11-09 03:39:00,49.1,24.6,29.21,WSW,247,8.1,12.8,38,0.00,,CLR,0.00,VWS V14.01,2013-11-09 09:39:00,
2013-11-09 03:40:00,49.1,24.6,29.21,WSW,243,13.2,13.2,38,0.00,,CLR,0.00,VWS V14.01,2013-11-09 09:40:00,
2013-11-09 03:41:00,49.1,24.6,29.21,WSW,243,11.0,12.3,38,0.00,,CLR,0.00,VWS V14.01,2013-11-09 09:41:00,
2013-11-09 03:42:00,49.1,24.6,29.21,WSW,239,8.7,9.2,38,0.00,,CLR,0.00,VWS V14.01,2013-11-09 09:42:00,
2013-11-09 03:44:00,49.1,24.6,29.21,SW,222,8.1,8.7,38,0.00,,CLR,0.00,VWS V14.01,2013-11-09 09:44:00,
2013-11-09 03:45:00,49.1,24.6,29.21,SW,228,10.1,10.1,38,0.00,,CLR,0.00,VWS V14.01,2013-11-09 09:45:00,
2013-11-09 03:46:00,48.9,24.5,29.21,WSW,242,10.1,10.1,38,0.00,,CLR,0.00,VWS V14.01,2013-11-09 09:46:00,
2013-11-09 03:48:00,48.9,24.5,29.21,WSW,242,8.7,8.7,38,0.00,,CLR,0.00,VWS V14.01,2013-11-09 09:48:00,
2013-11-09 03:49:00,48.9,24.5,29.21,SW,236,10.1,10.1,38,0.00,,CLR,0.00,VWS V14.01,2013-11-09 09:49:00,
2013-11-09 03:50:00,48.9,24.5,29.21,SW,235,12.8,12.8,38,0.00,,CLR,0.00,VWS V14.01,2013-11-09 09:50:00,
2013-11-09 03:51:00,48.9,24.5,29.21,WSW,240,8.3,8.7,38,0.00,,CLR,0.00,VWS V14.01,2013-11-09 09:51:00,
2013-11-09 03:52:00,48.9,24.5,29.21,WSW,253,11.0,13.2,38,0.00,,CLR,0.00,VWS V14.01,2013-11-09 09:52:00,
2013-11-09 03:53:00,48.9,24.5,29.21,SW,236,8.3,10.1,38,0.00,,CLR,0.00,VWS V14.01,2013-11-09 09:53:00,
2013-11-09 03:54:00,48.9,24.5,29.21,WSW,249,8.7,10.1,38,0.00,,CLR,0.00,VWS V14.01,2013-11-09 09:54:00,
2013-11-09 03:55:00,48.7,24.3,29.21,WSW,247,11.0,11.0,38,0.00,,CLR,0.00,VWS V14.01,2013-11-09 09:55:00,
2013-11-09 03:56:00,48.7,24.3,29.21,SW,220,9.6,10.1,38,0.00,,CLR,0.00,VWS V14.01,2013-11-09 09:56:00,
2013-11-09 03:58:00,48.7,24.3,29.21,SW,232,13.2,13.2,38,0.00,,CLR,0.00,VWS V14.01,2013-11-09 09:58:00,
2013-11-09 03:59:00,48.7,24.3,29.21,SW,231,12.8,12.8,38,0.00,,CLR,0.00,VWS V14.01,2013-11-09 09:59:00,
2013-11-09 04:00:00,48.7,24.3,29.21,SW,228,8.1,10.5,38,0.00,,CLR,0.00,VWS V14.01,2013-11-09 10:00:00,
2013-11-09 04:01:00,48.7,24.3,29.21,SW,232,8.7,10.5,38,0.00,,CLR,0.00,VWS V14.01,2013-11-09 10:01:00,
2013-11-09 04:05:00,48.7,24.3,29.21,WSW,238,8.7,10.5,38,0.00,,CLR,0.00,VWS V14.01,2013-11-09 10:05:00,
2013-11-09 04:06:00,48.7,24.3,29.21,WSW,238,12.3,12.8,38,0.00,,CLR,0.00,VWS V14.01,2013-11-09 10:06:00,
2013-11-09 04:08:00,48.7,24.3,29.21,WSW,237,11.0,11.0,38,0.00,,CLR,0.00,VWS V14.01,2013-11-09 10:08:00,
2013-11-09 04:10:00,48.7,24.3,29.21,WSW,238,8.7,10.5,38,0.00,,CLR,0.00,VWS V14.01,2013-11-09 10:10:00,
2013-11-09 04:11:00,48.7,24.3,29.21,WSW,237,9.2,11.0,38,0.00,,CLR,0.00,VWS V14.01,2013-11-09 10:11:00,
2013-11-09 04:13:00,48.7,24.3,29.21,SW,235,8.3,8.3,38,0.00,,CLR,0.00,VWS V14.01,2013-11-09 10:13:00,
2013-11-09 04:15:00,48.7,24.3,29.21,SW,232,10.5,10.5,38,0.00,,CLR,0.00,VWS V14.01,2013-11-09 10:15:00,
2013-11-09 04:17:00,48.6,24.1,29.21,WSW,237,11.0,11.0,38,0.00,,CLR,0.00,VWS V14.01,2013-11-09 10:17:00,
2013-11-09 04:19:00,48.7,24.3,29.21,WSW,240,8.7,12.3,38,0.00,,CLR,0.00,VWS V14.01,2013-11-09 10:19:00,
2013-11-09 04:20:00,48.7,24.3,29.21,WSW,247,8.1,8.1,38,0.00,,CLR,0.00,VWS V14.01,2013-11-09 10:20:00,
2013-11-09 04:21:00,48.7,24.3,29.21,SW,222,8.3,8.7,38,0.00,,CLR,0.00,VWS V14.01,2013-11-09 10:21:00,
2013-11-09 04:22:00,48.7,24.3,29.21,WSW,246,12.8,12.8,38,0.00,,CLR,0.00,VWS V14.01,2013-11-09 10:22:00,
2013-11-09 04:23:00,48.6,24.1,29.21,WSW,238,13.2,13.2,38,0.00,,CLR,0.00,VWS V14.01,2013-11-09 10:23:00,
2013-11-09 04:24:00,48.7,24.3,29.21,WSW,248,10.5,12.8,38,0.00,,CLR,0.00,VWS V14.01,2013-11-09 10:24:00,
2013-11-09 04:25:00,48.7,24.3,29.21,WSW,238,10.1,12.8,38,0.00,,CLR,0.00,VWS V14.01,2013-11-09 10:25:00,
2013-11-09 04:26:00,48.7,24.3,29.21,WSW,240,10.5,10.5,38,0.00,,CLR,0.00,VWS V14.01,2013-11-09 10:26:00,
2013-11-09 04:27:00,48.7,24.3,29.21,WSW,240,12.3,12.3,38,0.00,,CLR,0.00,VWS V14.01,2013-11-09 10:27:00,
2013-11-09 04:28:00,48.9,24.5,29.21,WSW,243,10.5,11.0,38,0.00,,CLR,0.00,VWS V14.01,2013-11-09 10:28:00,
2013-11-09 04:31:00,48.9,24.5,29.21,WSW,240,8.3,8.3,38,0.00,,CLR,0.00,VWS V14.01,2013-11-09 10:31:00,
2013-11-09 04:32:00,48.7,24.3,29.21,SW,221,8.3,11.0,38,0.00,,CLR,0.00,VWS V14.01,2013-11-09 10:32:00,
2013-11-09 04:33:00,48.7,24.3,29.21,WSW,248,8.1,11.0,38,0.00,,CLR,0.00,VWS V14.01,2013-11-09 10:33:00,
2013-11-09 04:35:00,48.7,24.3,29.21,SW,236,8.1,8.1,38,0.00,,CLR,0.00,VWS V14.01,2013-11-09 10:35:00,
2013-11-09 04:36:00,48.6,24.1,29.21,SW,233,9.2,12.8,38,0.00,,CLR,0.00,VWS V14.01,2013-11-09 10:36:00,
2013-11-09 04:37:00,48.6,24.1,29.21,WSW,242,8.7,11.0,38,0.00,,CLR,0.00,VWS V14.01,2013-11-09 10:37:00,
2013-11-09 04:38:00,48.6,24.1,29.21,SW,229,8.1,8.7,38,0.00,,CLR,0.00,VWS V14.01,2013-11-09 10:38:00,
2013-11-09 04:39:00,48.6,24.1,29.21,WSW,238,6.3,8.1,38,0.00,,CLR,0.00,VWS V14.01,2013-11-09 10:39:00,
2013-11-09 04:40:00,48.6,24.1,29.21,SW,232,7.6,10.5,38,0.00,,CLR,0.00,VWS V14.01,2013-11-09 10:40:00,
2013-11-09 04:41:00,48.4,24.0,29.21,SW,225,11.0,11.0,38,0.00,,CLR,0.00,VWS V14.01,2013-11-09 10:41:00,
2013-11-09 04:42:00,48.4,24.0,29.21,WSW,237,10.1,10.1,38,0.00,,CLR,0.00,VWS V14.01,2013-11-09 10:42:00,
2013-11-09 04:44:00,48.4,24.0,29.21,WSW,244,8.1,8.1,38,0.00,,CLR,0.00,VWS V14.01,2013-11-09 10:44:00,
2013-11-09 04:45:00,48.4,24.0,29.21,SW,230,10.5,10.5,38,0.00,,CLR,0.00,VWS V14.01,2013-11-09 10:45:00,
2013-11-09 04:46:00,48.4,24.0,29.21,SW,231,8.3,11.0,38,0.00,,CLR,0.00,VWS V14.01,2013-11-09 10:46:00,
2013-11-09 04:48:00,48.2,23.8,29.21,SW,232,8.7,8.7,38,0.00,,CLR,0.00,VWS V14.01,2013-11-09 10:48:00,
2013-11-09 04:49:00,48.2,23.8,29.21,SW,236,8.1,8.7,38,0.00,,CLR,0.00,VWS V14.01,2013-11-09 10:49:00,
2013-11-09 04:50:00,48.2,23.8,29.21,SW,235,8.3,10.5,38,0.00,,CLR,0.00,VWS V14.01,2013-11-09 10:50:00,
2013-11-09 04:51:00,48.2,23.8,29.21,SW,235,8.3,8.3,38,0.00,,CLR,0.00,VWS V14.01,2013-11-09 10:51:00,
2013-11-09 04:52:00,48.2,23.8,29.21,SW,231,11.0,11.0,38,0.00,,CLR,0.00,VWS V14.01,2013-11-09 10:52:00,
2013-11-09 04:54:00,48.2,23.8,29.21,SW,234,8.7,8.7,38,0.00,,CLR,0.00,VWS V14.01,2013-11-09 10:54:00,
2013-11-09 04:55:00,48.2,23.8,29.21,WSW,241,10.1,10.1,38,0.00,,CLR,0.00,VWS V14.01,2013-11-09 10:55:00,
2013-11-09 04:56:00,48.2,23.8,29.21,SW,235,8.3,12.8,38,0.00,,CLR,0.00,VWS V14.01,2013-11-09 10:56:00,
2013-11-09 04:57:00,48.2,23.8,29.21,WSW,250,8.7,8.7,38,0.00,,CLR,0.00,VWS V14.01,2013-11-09 10:57:00,
2013-11-09 05:00:00,48.2,23.8,29.21,SW,231,8.3,11.0,38,0.00,,CLR,0.00,VWS V14.01,2013-11-09 11:00:00,
2013-11-09 05:01:00,48.2,23.8,29.21,SW,236,10.1,10.1,38,0.00,,CLR,0.00,VWS V14.01,2013-11-09 11:01:00,
2013-11-09 05:02:00,48.2,23.8,29.21,WSW,237,8.1,10.1,38,0.00,,CLR,0.00,VWS V14.01,2013-11-09 11:02:00,
2013-11-09 05:03:00,48.2,23.8,29.21,SW,214,8.3,8.3,38,0.00,,CLR,0.00,VWS V14.01,2013-11-09 11:03:00,
2013-11-09 05:06:00,48.0,23.6,29.21,SW,226,9.6,9.6,38,0.00,,CLR,0.00,VWS V14.01,2013-11-09 11:06:00,
2013-11-09 05:07:00,47.8,23.5,29.21,SW,232,11.9,11.9,38,0.00,,CLR,0.00,VWS V14.01,2013-11-09 11:07:00,
2013-11-09 05:08:00,47.8,23.5,29.21,SW,230,10.1,11.9,38,0.00,,CLR,0.00,VWS V14.01,2013-11-09 11:08:00,
2013-11-09 05:09:00,47.8,23.5,29.21,WSW,239,7.6,10.1,38,0.00,,CLR,0.00,VWS V14.01,2013-11-09 11:09:00,
2013-11-09 05:10:00,47.8,23.5,29.21,SW,235,8.1,10.5,38,0.00,,CLR,0.00,VWS V14.01,2013-11-09 11:10:00,
2013-11-09 05:12:00,47.7,23.3,29.21,SW,231,8.3,8.3,38,0.00,,CLR,0.00,VWS V14.01,2013-11-09 11:12:00,
2013-11-09 05:13:00,47.7,23.3,29.21,SW,231,7.6,7.6,38,0.00,,CLR,0.00,VWS V14.01,2013-11-09 11:13:00,
2013-11-09 05:14:00,47.7,23.3,29.21,SW,235,8.1,8.3,38,0.00,,CLR,0.00,VWS V14.01,2013-11-09 11:14:00,
2013-11-09 05:16:00,47.5,23.2,29.21,SW,227,8.3,8.3,38,0.00,,CLR,0.00,VWS V14.01,2013-11-09 11:16:00,
2013-11-09 05:17:00,47.5,23.2,29.21,SW,229,8.3,8.3,38,0.00,,CLR,0.00,VWS V14.01,2013-11-09 11:17:00,
2013-11-09 05:18:00,47.5,23.2,29.21,WSW,246,8.1,8.1,38,0.00,,CLR,0.00,VWS V14.01,2013-11-09 11:18:00,
2013-11-09 05:20:00,47.3,23.0,29.21,SW,221,10.5,10.5,38,0.00,,CLR,0.00,VWS V14.01,2013-11-09 11:20:00,
2013-11-09 05:21:00,47.5,23.2,29.21,SW,235,8.3,10.5,38,0.00,,CLR,0.00,VWS V14.01,2013-11-09 11:21:00,
2013-11-09 05:22:00,47.5,23.2,29.21,SW,235,8.3,8.3,38,0.00,,CLR,0.00,VWS V14.01,2013-11-09 11:22:00,
2013-11-09 05:23:00,47.5,23.2,29.21,SW,215,10.1,10.1,38,0.00,,CLR,0.00,VWS V14.01,2013-11-09 11:23:00,
2013-11-09 05:24:00,47.5,23.2,29.23,SW,232,7.6,10.1,38,0.00,,CLR,0.00,VWS V14.01,2013-11-09 11:24:00,
2013-11-09 05:27:00,47.3,23.0,29.23,SW,221,7.2,7.2,38,0.00,,CLR,0.00,VWS V14.01,2013-11-09 11:27:00,
2013-11-09 05:28:00,47.3,23.0,29.23,SW,218,8.3,8.3,38,0.00,,CLR,0.00,VWS V14.01,2013-11-09 11:28:00,
2013-11-09 05:29:00,47.3,23.0,29.23,SW,229,8.1,8.7,38,0.00,,CLR,0.00,VWS V14.01,2013-11-09 11:29:00,
2013-11-09 05:31:00,47.1,22.8,29.23,SW,236,8.1,8.1,38,0.00,,CLR,0.00,VWS V14.01,2013-11-09 11:31:00,
2013-11-09 05:32:00,47.1,22.8,29.23,SW,215,8.1,10.5,38,0.00,,CLR,0.00,VWS V14.01,2013-11-09 11:32:00,
2013-11-09 05:34:00,47.1,22.8,29.23,SW,231,7.6,8.7,38,0.00,,CLR,0.00,VWS V14.01,2013-11-09 11:34:00,
2013-11-09 05:35:00,47.1,22.8,29.23,WSW,240,6.3,7.6,38,0.00,,CLR,0.00,VWS V14.01,2013-11-09 11:35:00,
2013-11-09 05:36:00,47.1,22.8,29.23,SW,220,5.4,8.7,38,0.00,,CLR,0.00,VWS V14.01,2013-11-09 11:36:00,
2013-11-09 05:37:00,47.1,22.8,29.23,SSW,207,8.7,10.1,38,0.00,,CLR,0.00,VWS V14.01,2013-11-09 11:37:00,
2013-11-09 05:38:00,46.9,22.7,29.23,SW,235,9.6,11.0,38,0.00,,CLR,0.00,VWS V14.01,2013-11-09 11:38:00,
2013-11-09 05:40:00,46.9,22.7,29.23,SW,236,8.7,8.7,38,0.00,,CLR,0.00,VWS V14.01,2013-11-09 11:40:00,
2013-11-09 05:41:00,46.9,22.7,29.23,SW,224,8.1,8.1,38,0.00,,CLR,0.00,VWS V14.01,2013-11-09 11:41:00,
2013-11-09 05:42:00,46.9,22.7,29.23,SW,231,8.7,10.5,38,0.00,,CLR,0.00,VWS V14.01,2013-11-09 11:42:00,
2013-11-09 05:44:00,46.8,22.5,29.23,SW,224,8.7,8.7,38,0.00,,CLR,0.00,VWS V14.01,2013-11-09 11:44:00,
2013-11-09 05:46:00,46.8,22.5,29.23,SW,236,8.3,8.7,38,0.00,,CLR,0.00,VWS V14.01,2013-11-09 11:46:00,
2013-11-09 05:48:00,46.8,26.0,29.23,SW,236,8.7,8.7,44,0.00,,CLR,0.00,VWS V14.01,2013-11-09 11:48:00,
2013-11-09 05:49:00,46.8,26.0,29.23,SW,232,8.1,8.1,44,0.00,,CLR,0.00,VWS V14.01,2013-11-09 11:49:00,
2013-11-09 05:51:00,46.6,25.9,29.23,SW,220,8.1,8.7,44,0.00,,CLR,0.00,VWS V14.01,2013-11-09 11:51:00,
2013-11-09 05:52:00,46.6,25.9,29.23,SW,218,8.3,8.7,44,0.00,,CLR,0.00,VWS V14.01,2013-11-09 11:52:00,
2013-11-09 05:53:00,46.6,25.9,29.23,WSW,244,8.3,11.0,44,0.00,,CLR,0.00,VWS V14.01,2013-11-09 11:53:00,
2013-11-09 05:56:00,46.6,25.9,29.23,SW,230,5.4,8.1,44,0.00,,CLR,0.00,VWS V14.01,2013-11-09 11:56:00,
2013-11-09 05:57:00,46.6,25.9,29.23,SSW,211,8.7,10.1,44,0.00,,CLR,0.00,VWS V14.01,2013-11-09 11:57:00,
2013-11-09 05:59:00,46.6,25.9,29.23,SW,224,6.3,6.3,44,0.00,,CLR,0.00,VWS V14.01,2013-11-09 11:59:00,
2013-11-09 06:00:00,46.4,25.7,29.23,SW,235,8.3,8.7,44,0.00,,CLR,0.00,VWS V14.01,2013-11-09 12:00:00,
2013-11-09 06:01:00,46.4,25.7,29.23,SW,226,8.3,8.7,44,0.00,,CLR,0.00,VWS V14.01,2013-11-09 12:01:00,
2013-11-09 06:02:00,46.4,25.7,29.23,SW,224,7.6,7.6,44,0.00,,CLR,0.00,VWS V14.01,2013-11-09 12:02:00,
2013-11-09 06:04:00,46.2,25.5,29.23,SW,228,5.8,5.8,44,0.00,,CLR,0.00,VWS V14.01,2013-11-09 12:04:00,
2013-11-09 06:06:00,46.2,25.5,29.23,SW,230,8.1,8.3,44,0.00,,CLR,0.00,VWS V14.01,2013-11-09 12:06:00,
2013-11-09 06:07:00,46.2,25.5,29.23,SW,222,11.0,11.0,44,0.00,,CLR,0.00,VWS V14.01,2013-11-09 12:07:00,
2013-11-09 06:08:00,46.2,25.5,29.23,SW,230,7.6,10.5,44,0.00,,CLR,0.00,VWS V14.01,2013-11-09 12:08:00,
2013-11-09 06:10:00,46.2,25.5,29.23,SW,230,8.3,10.1,44,0.00,,CLR,0.00,VWS V14.01,2013-11-09 12:10:00,
2013-11-09 06:12:00,46.0,25.4,29.23,SW,216,8.3,11.0,44,0.00,,CLR,0.00,VWS V14.01,2013-11-09 12:12:00,
2013-11-09 06:13:00,46.0,25.4,29.23,SW,234,8.7,8.7,44,0.00,,CLR,0.00,VWS V14.01,2013-11-09 12:13:00,
2013-11-09 06:14:00,46.0,25.4,29.23,SW,216,4.9,10.1,44,0.00,,CLR,0.00,VWS V14.01,2013-11-09 12:14:00,
2013-11-09 06:15:00,46.0,25.4,29.23,WSW,245,8.3,8.3,44,0.00,,CLR,0.00,VWS V14.01,2013-11-09 12:15:00,
2013-11-09 06:16:00,46.0,25.4,29.23,WSW,240,5.8,8.3,44,0.00,,CLR,0.00,VWS V14.01,2013-11-09 12:16:00,
2013-11-09 06:18:00,46.0,25.4,29.23,SW,218,8.3,8.3,44,0.00,,CLR,0.00,VWS V14.01,2013-11-09 12:18:00,
2013-11-09 06:19:00,46.0,25.4,29.23,SSW,208,5.8,8.1,44,0.00,,CLR,0.00,VWS V14.01,2013-11-09 12:19:00,
2013-11-09 06:21:00,46.0,25.4,29.23,SW,228,8.3,8.3,44,0.00,,CLR,0.00,VWS V14.01,2013-11-09 12:21:00,
2013-11-09 06:22:00,45.9,25.2,29.23,SW,226,7.6,8.1,44,0.00,,CLR,0.00,VWS V14.01,2013-11-09 12:22:00,
2013-11-09 06:23:00,45.9,25.2,29.23,SW,226,8.3,8.3,44,0.00,,CLR,0.00,VWS V14.01,2013-11-09 12:23:00,
2013-11-09 06:24:00,45.9,25.2,29.23,WSW,237,7.6,7.6,44,0.00,,CLR,0.00,VWS V14.01,2013-11-09 12:24:00,
2013-11-09 06:27:00,45.9,25.2,29.23,SW,227,7.2,8.1,44,0.00,,CLR,0.00,VWS V14.01,2013-11-09 12:27:00,
2013-11-09 06:28:00,45.9,25.2,29.23,SW,230,8.3,8.3,44,0.00,,CLR,0.00,VWS V14.01,2013-11-09 12:28:00,
2013-11-09 06:29:00,45.7,25.0,29.23,SW,227,8.7,8.7,44,0.00,,CLR,0.00,VWS V14.01,2013-11-09 12:29:00,
2013-11-09 06:30:00,45.7,25.0,29.23,SW,220,8.3,8.3,44,0.00,,CLR,0.00,VWS V14.01,2013-11-09 12:30:00,
2013-11-09 06:32:00,45.7,28.1,29.23,SW,225,8.3,8.3,50,0.00,,CLR,0.00,VWS V14.01,2013-11-09 12:32:00,
2013-11-09 06:34:00,45.7,28.1,29.23,SW,230,8.3,8.3,50,0.00,,CLR,0.00,VWS V14.01,2013-11-09 12:34:00,
2013-11-09 06:35:00,45.5,28.0,29.23,SW,218,7.6,8.3,50,0.00,,CLR,0.00,VWS V14.01,2013-11-09 12:35:00,
2013-11-09 06:36:00,45.5,28.0,29.23,SW,214,8.3,8.3,50,0.00,,CLR,0.00,VWS V14.01,2013-11-09 12:36:00,
2013-11-09 06:39:00,45.5,28.0,29.23,SW,232,5.8,8.1,50,0.00,,CLR,0.00,VWS V14.01,2013-11-09 12:39:00,
2013-11-09 06:40:00,45.3,27.8,29.23,SW,226,8.3,8.3,50,0.00,,CLR,0.00,VWS V14.01,2013-11-09 12:40:00,
2013-11-09 06:41:00,45.3,27.8,29.23,SW,217,8.1,10.1,50,0.00,,CLR,0.00,VWS V14.01,2013-11-09 12:41:00,
2013-11-09 06:44:00,45.3,27.8,29.23,WSW,243,5.8,8.3,50,0.00,,CLR,0.00,VWS V14.01,2013-11-09 12:44:00,
2013-11-09 06:45:00,45.3,27.8,29.23,SSW,204,8.3,8.3,50,0.00,,CLR,0.00,VWS V14.01,2013-11-09 12:45:00,
2013-11-09 06:47:00,45.5,28.0,29.23,SW,222,6.3,8.1,50,0.00,,CLR,0.04,VWS V14.01,2013-11-09 12:47:00,
2013-11-09 06:48:00,45.3,27.8,29.23,SW,231,6.3,8.1,50,0.00,,CLR,0.00,VWS V14.01,2013-11-09 12:48:00,
2013-11-09 06:50:00,45.3,27.8,29.23,WSW,241,6.3,6.3,50,0.00,,CLR,0.00,VWS V14.01,2013-11-09 12:50:00,
2013-11-09 06:51:00,45.3,27.8,29.23,SW,229,6.3,7.6,50,0.00,,CLR,0.00,VWS V14.01,2013-11-09 12:51:00,
2013-11-09 06:52:00,45.1,27.6,29.23,SSW,212,6.3,6.3,50,0.00,,CLR,0.00,VWS V14.01,2013-11-09 12:52:00,
2013-11-09 06:53:00,45.1,27.6,29.23,SSW,212,6.3,8.3,50,0.00,,CLR,0.00,VWS V14.01,2013-11-09 12:53:00,
2013-11-09 06:55:00,45.1,29.5,29.26,SW,233,7.6,7.6,54,0.00,,CLR,0.00,VWS V14.01,2013-11-09 12:55:00,
2013-11-09 06:57:00,45.1,29.5,29.26,SW,226,7.2,7.2,54,0.00,,CLR,0.00,VWS V14.01,2013-11-09 12:57:00,
2013-11-09 06:58:00,45.1,29.5,29.26,SW,229,7.6,8.7,54,0.00,,CLR,0.00,VWS V14.01,2013-11-09 12:58:00,
2013-11-09 06:59:00,45.1,29.5,29.26,SSW,210,8.7,8.7,54,0.00,,CLR,0.00,VWS V14.01,2013-11-09 12:59:00,
2013-11-09 07:00:00,45.1,29.5,29.26,SW,229,7.6,8.1,54,0.00,,CLR,0.00,VWS V14.01,2013-11-09 13:00:00,
2013-11-09 07:01:00,45.3,29.7,29.26,SW,229,8.1,10.5,54,0.00,,CLR,0.00,VWS V14.01,2013-11-09 13:01:00,
2013-11-09 07:02:00,45.3,29.7,29.26,SW,215,7.6,7.6,54,0.00,,CLR,0.00,VWS V14.01,2013-11-09 13:02:00,
2013-11-09 07:03:00,45.3,29.7,29.26,SW,232,7.6,8.1,54,0.00,,CLR,0.00,VWS V14.01,2013-11-09 13:03:00,
2013-11-09 07:04:00,45.3,29.7,29.26,SW,224,7.6,7.6,54,0.00,,CLR,0.00,VWS V14.01,2013-11-09 13:04:00,
2013-11-09 07:05:00,45.3,29.7,29.26,SW,224,8.7,8.7,54,0.00,,CLR,0.00,VWS V14.01,2013-11-09 13:05:00,
2013-11-09 07:06:00,45.5,29.8,29.26,SW,218,7.6,8.7,54,0.00,,CLR,0.00,VWS V14.01,2013-11-09 13:06:00,
2013-11-09 07:07:00,45.5,29.8,29.26,SW,221,9.2,9.2,54,0.00,,CLR,0.00,VWS V14.01,2013-11-09 13:07:00,
2013-11-09 07:09:00,45.5,29.8,29.26,WSW,244,8.1,8.1,54,0.00,,CLR,0.00,VWS V14.01,2013-11-09 13:09:00,
2013-11-09 07:10:00,45.7,30.0,29.23,SW,230,6.3,8.3,54,0.00,,CLR,0.00,VWS V14.01,2013-11-09 13:10:00,
2013-11-09 07:11:00,45.7,30.0,29.23,SSW,206,8.7,8.7,54,0.00,,CLR,0.00,VWS V14.01,2013-11-09 13:11:00,
2013-11-09 07:13:00,45.7,30.0,29.23,SW,220,8.1,8.1,54,0.00,,CLR,0.00,VWS V14.01,2013-11-09 13:13:00,
2013-11-09 07:14:00,45.9,30.2,29.23,SW,234,10.1,10.1,54,0.00,,CLR,0.00,VWS V14.01,2013-11-09 13:14:00,
2013-11-09 07:16:00,46.0,30.3,29.23,SW,227,8.1,8.3,54,0.00,,CLR,0.00,VWS V14.01,2013-11-09 13:16:00,
2013-11-09 07:17:00,46.0,30.3,29.23,SW,235,7.6,8.7,54,0.00,,CLR,0.00,VWS V14.01,2013-11-09 13:17:00,
2013-11-09 07:19:00,46.2,30.5,29.23,SW,228,8.1,8.3,54,0.00,,CLR,0.00,VWS V14.01,2013-11-09 13:19:00,
2013-11-09 07:20:00,46.2,30.5,29.23,SW,224,8.1,8.1,54,0.00,,CLR,0.00,VWS V14.01,2013-11-09 13:20:00,
2013-11-09 07:22:00,46.4,30.7,29.23,SW,232,7.6,7.6,54,0.00,,CLR,0.00,VWS V14.01,2013-11-09 13:22:00,
2013-11-09 07:23:00,46.4,30.7,29.23,SW,230,8.7,10.5,54,0.00,,CLR,0.00,VWS V14.01,2013-11-09 13:23:00,
2013-11-09 07:25:00,46.6,28.0,29.26,WSW,242,8.7,8.7,48,0.00,,CLR,0.00,VWS V14.01,2013-11-09 13:25:00,
2013-11-09 07:27:00,46.9,28.3,29.26,WSW,238,8.1,10.5,48,0.00,,CLR,0.00,VWS V14.01,2013-11-09 13:27:00,
2013-11-09 07:29:00,46.9,28.3,29.26,SW,226,8.1,10.1,48,0.00,,CLR,0.00,VWS V14.01,2013-11-09 13:29:00,
2013-11-09 07:30:00,47.1,28.5,29.26,SW,235,8.3,8.7,48,0.00,,CLR,0.00,VWS V14.01,2013-11-09 13:30:00,
2013-11-09 07:31:00,47.1,28.5,29.26,SW,220,10.1,10.1,48,0.00,,CLR,0.00,VWS V14.01,2013-11-09 13:31:00,
2013-11-09 07:33:00,47.3,26.5,29.26,SW,234,8.1,8.3,44,0.00,,CLR,0.00,VWS V14.01,2013-11-09 13:33:00,
2013-11-09 07:34:00,47.5,26.7,29.26,SW,218,7.6,8.3,44,0.00,,CLR,0.00,VWS V14.01,2013-11-09 13:34:00,
2013-11-09 07:35:00,47.5,26.7,29.26,SW,229,8.7,8.7,44,0.00,,CLR,0.00,VWS V14.01,2013-11-09 13:35:00,
2013-11-09 07:36:00,47.7,26.8,29.26,WSW,242,6.3,8.1,44,0.00,,CLR,0.00,VWS V14.01,2013-11-09 13:36:00,
2013-11-09 07:37:00,47.7,26.8,29.26,SW,230,8.3,8.3,44,0.00,,CLR,0.00,VWS V14.01,2013-11-09 13:37:00,
2013-11-09 07:38:00,47.8,27.0,29.26,WSW,241,8.1,8.7,44,0.00,,CLR,0.00,VWS V14.01,2013-11-09 13:38:00,
2013-11-09 07:39:00,47.8,27.0,29.26,WSW,240,10.1,10.1,44,0.00,,CLR,0.00,VWS V14.01,2013-11-09 13:39:00,
2013-11-09 07:41:00,48.0,27.2,29.26,SW,235,7.6,7.6,44,0.00,,CLR,0.00,VWS V14.01,2013-11-09 13:41:00,
2013-11-09 07:43:00,48.2,26.2,29.26,WSW,239,6.7,8.7,42,0.00,,CLR,0.00,VWS V14.01,2013-11-09 13:43:00,
2013-11-09 07:44:00,48.2,26.2,29.26,WSW,246,8.7,8.7,42,0.00,,CLR,0.00,VWS V14.01,2013-11-09 13:44:00,
2013-11-09 07:46:00,48.4,26.4,29.26,WSW,241,8.7,8.7,42,0.00,,CLR,0.00,VWS V14.01,2013-11-09 13:46:00,
2013-11-09 07:47:00,48.6,26.5,29.26,WSW,240,6.7,10.5,42,0.00,,CLR,0.00,VWS V14.01,2013-11-09 13:47:00,
2013-11-09 07:48:00,48.7,26.7,29.26,WSW,239,7.6,8.3,42,0.00,,CLR,0.00,VWS V14.01,2013-11-09 13:48:00,
2013-11-09 07:50:00,48.9,26.9,29.26,WSW,249,11.4,11.4,42,0.00,,CLR,0.00,VWS V14.01,2013-11-09 13:50:00,
2013-11-09 07:51:00,48.9,26.9,29.26,West,265,8.7,11.0,42,0.00,,CLR,0.00,VWS V14.01,2013-11-09 13:51:00,
2013-11-09 07:52:00,49.1,27.0,29.26,WSW,240,6.3,8.7,42,0.00,,CLR,0.00,VWS V14.01,2013-11-09 13:52:00,
2013-11-09 07:53:00,49.1,27.0,29.26,WSW,253,7.6,8.3,42,0.00,,CLR,0.00,VWS V14.01,2013-11-09 13:53:00,
2013-11-09 07:55:00,49.5,24.9,29.26,SW,235,7.6,10.5,38,0.00,,CLR,0.00,VWS V14.01,2013-11-09 13:55:00,
2013-11-09 07:56:00,49.5,24.9,29.26,WSW,251,8.1,8.1,38,0.00,,CLR,0.00,VWS V14.01,2013-11-09 13:56:00,
2013-11-09 07:58:00,49.6,25.1,29.26,SW,231,8.1,8.1,38,0.00,,CLR,0.00,VWS V14.01,2013-11-09 13:58:00,
2013-11-09 07:59:00,49.8,25.2,29.26,SW,230,10.1,10.5,38,0.00,,CLR,0.00,VWS V14.01,2013-11-09 13:59:00,
2013-11-09 08:00:00,50.0,25.4,29.26,West,259,9.2,12.8,38,0.00,,CLR,0.00,VWS V14.01,2013-11-09 14:00:00,
2013-11-09 08:03:00,50.2,25.6,29.26,SW,224,10.5,11.0,38,0.00,,CLR,0.00,VWS V14.01,2013-11-09 14:03:00,
2013-11-09 08:04:00,50.2,25.6,29.26,WSW,250,11.0,13.2,38,0.00,,CLR,0.00,VWS V14.01,2013-11-09 14:04:00,
2013-11-09 08:05:00,50.4,25.7,29.26,WSW,255,9.2,9.2,38,0.00,,CLR,0.00,VWS V14.01,2013-11-09 14:05:00,
2013-11-09 08:06:00,50.4,25.7,29.26,WSW,254,8.3,8.3,38,0.00,,CLR,0.00,VWS V14.01,2013-11-09 14:06:00,
2013-11-09 08:08:00,50.7,26.0,29.26,West,270,7.6,10.1,38,0.00,,CLR,0.00,VWS V14.01,2013-11-09 14:08:00,
2013-11-09 08:10:00,50.7,26.0,29.29,SW,227,10.1,10.1,38,0.00,,CLR,0.00,VWS V14.01,2013-11-09 14:10:00,
2013-11-09 08:11:00,50.7,26.0,29.29,SW,235,5.8,8.1,38,0.00,,CLR,0.00,VWS V14.01,2013-11-09 14:11:00,
2013-11-09 08:14:00,51.1,26.4,29.29,WSW,252,8.7,8.7,38,0.00,,CLR,0.00,VWS V14.01,2013-11-09 14:14:00,
2013-11-09 08:15:00,51.3,26.5,29.29,WSW,252,10.5,11.9,38,0.00,,CLR,0.00,VWS V14.01,2013-11-09 14:15:00,
2013-11-09 08:16:00,51.4,26.7,29.29,WSW,237,8.3,10.5,38,0.00,,CLR,0.00,VWS V14.01,2013-11-09 14:16:00,
2013-11-09 08:17:00,51.4,26.7,29.29,SW,219,8.1,8.1,38,0.00,,CLR,0.00,VWS V14.01,2013-11-09 14:17:00,
2013-11-09 08:19:00,51.6,26.9,29.29,WSW,241,10.5,10.5,38,0.00,,CLR,0.00,VWS V14.01,2013-11-09 14:19:00,
2013-11-09 08:21:00,51.6,26.9,29.29,WSW,241,7.6,7.6,38,0.00,,CLR,0.00,VWS V14.01,2013-11-09 14:21:00,
2013-11-09 08:22:00,51.8,25.7,29.29,WSW,240,11.0,15.0,36,0.00,,CLR,0.00,VWS V14.01,2013-11-09 14:22:00,
2013-11-09 08:23:00,51.8,25.7,29.29,WSW,240,8.1,12.3,36,0.00,,CLR,0.00,VWS V14.01,2013-11-09 14:23:00,
2013-11-09 08:24:00,52.0,25.9,29.29,West,275,8.3,10.1,36,0.00,,CLR,0.00,VWS V14.01,2013-11-09 14:24:00,
2013-11-09 08:25:00,52.0,25.9,29.29,West,266,7.6,8.7,36,0.00,,CLR,0.00,VWS V14.01,2013-11-09 14:25:00,
2013-11-09 08:26:00,52.2,26.0,29.29,WSW,258,5.8,8.3,36,0.00,,CLR,0.00,VWS V14.01,2013-11-09 14:26:00,
2013-11-09 08:27:00,52.3,26.2,29.29,SW,235,8.7,10.5,36,0.00,,CLR,0.00,VWS V14.01,2013-11-09 14:27:00,
2013-11-09 08:28:00,52.3,26.2,29.29,West,267,7.6,8.3,36,0.00,,CLR,0.00,VWS V14.01,2013-11-09 14:28:00,
2013-11-09 08:29:00,52.3,26.2,29.29,WSW,239,8.1,8.3,36,0.00,,CLR,0.00,VWS V14.01,2013-11-09 14:29:00,
2013-11-09 08:30:00,52.5,26.4,29.29,WSW,237,5.8,10.1,36,0.00,,CLR,0.00,VWS V14.01,2013-11-09 14:30:00,
2013-11-09 08:31:00,52.5,26.4,29.29,WSW,240,8.7,8.7,36,0.00,,CLR,0.00,VWS V14.01,2013-11-09 14:31:00,
2013-11-09 08:32:00,52.7,26.5,29.29,WNW,283,7.2,8.3,36,0.00,,CLR,0.00,VWS V14.01,2013-11-09 14:32:00,
2013-11-09 08:34:00,52.9,26.7,29.29,WSW,253,8.3,11.0,36,0.00,,CLR,0.00,VWS V14.01,2013-11-09 14:34:00,
2013-11-09 08:36:00,53.1,26.8,29.29,WSW,240,5.8,11.0,36,0.00,,CLR,0.00,VWS V14.01,2013-11-09 14:36:00,
2013-11-09 08:37:00,53.1,26.8,29.29,West,274,7.6,11.4,36,0.00,,CLR,0.00,VWS V14.01,2013-11-09 14:37:00,
2013-11-09 08:39:00,53.2,27.0,29.29,WSW,257,5.8,8.7,36,0.00,,CLR,0.00,VWS V14.01,2013-11-09 14:39:00,
2013-11-09 08:42:00,53.6,27.3,29.29,WSW,251,8.1,11.0,36,0.00,,CLR,0.00,VWS V14.01,2013-11-09 14:42:00,
2013-11-09 08:43:00,53.6,27.3,29.29,WSW,245,10.1,10.1,36,0.00,,CLR,0.00,VWS V14.01,2013-11-09 14:43:00,
2013-11-09 08:44:00,53.8,27.5,29.29,WSW,244,5.4,10.5,36,0.00,,CLR,0.04,VWS V14.01,2013-11-09 14:44:00,
2013-11-09 08:46:00,54.0,27.6,29.29,SW,233,8.7,8.7,36,0.00,,CLR,0.00,VWS V14.01,2013-11-09 14:46:00,
2013-11-09 08:47:00,54.0,27.6,29.29,West,269,8.3,11.0,36,0.00,,CLR,0.00,VWS V14.01,2013-11-09 14:47:00,
2013-11-09 08:48:00,54.1,27.8,29.29,SW,229,8.7,10.5,36,0.00,,CLR,0.00,VWS V14.01,2013-11-09 14:48:00,
2013-11-09 08:50:00,54.3,28.0,29.29,West,263,5.8,8.3,36,0.00,,CLR,0.00,VWS V14.01,2013-11-09 14:50:00,
2013-11-09 08:52:00,54.5,28.1,29.29,SW,236,8.1,8.7,36,0.00,,CLR,0.00,VWS V14.01,2013-11-09 14:52:00,
2013-11-09 08:53:00,54.7,28.3,29.29,West,259,8.7,10.5,36,0.00,,CLR,0.00,VWS V14.01,2013-11-09 14:53:00,
2013-11-09 08:54:00,54.7,28.3,29.29,WSW,242,5.4,8.1,36,0.00,,CLR,0.00,VWS V14.01,2013-11-09 14:54:00,
2013-11-09 08:57:00,55.0,28.6,29.29,SW,226,10.5,10.5,36,0.00,,CLR,0.00,VWS V14.01,2013-11-09 14:57:00,
2013-11-09 08:58:00,55.0,28.6,29.29,West,271,8.3,12.8,36,0.00,,CLR,0.00,VWS V14.01,2013-11-09 14:58:00,
2013-11-09 08:59:00,55.0,28.6,29.29,WSW,252,10.1,10.1,36,0.00,,CLR,0.00,VWS V14.01,2013-11-09 14:59:00,
2013-11-09 09:02:00,55.4,27.5,29.29,West,265,6.3,8.7,34,0.00,,CLR,0.00,VWS V14.01,2013-11-09 15:02:00,
2013-11-09 09:03:00,55.4,27.5,29.29,West,265,4.0,6.3,34,0.00,,CLR,0.00,VWS V14.01,2013-11-09 15:03:00,
2013-11-09 09:05:00,55.6,27.7,29.29,WSW,248,7.6,10.5,34,0.00,,CLR,0.00,VWS V14.01,2013-11-09 15:05:00,
2013-11-09 09:07:00,55.8,27.8,29.29,WSW,244,8.3,8.7,34,0.00,,CLR,0.00,VWS V14.01,2013-11-09 15:07:00,
2013-11-09 09:08:00,55.9,28.0,29.29,West,266,6.3,8.3,34,0.00,,CLR,0.00,VWS V14.01,2013-11-09 15:08:00,
2013-11-09 09:09:00,55.9,28.0,29.29,West,271,8.7,8.7,34,0.00,,CLR,0.00,VWS V14.01,2013-11-09 15:09:00,
2013-11-09 09:10:00,56.1,28.1,29.29,SW,225,8.1,10.1,34,0.00,,CLR,0.00,VWS V14.01,2013-11-09 15:10:00,
2013-11-09 09:13:00,56.3,28.3,29.29,WSW,249,3.1,8.7,34,0.00,,CLR,0.00,VWS V14.01,2013-11-09 15:13:00,
2013-11-09 09:14:00,56.5,28.5,29.29,West,277,8.7,8.7,34,0.00,,CLR,0.00,VWS V14.01,2013-11-09 15:14:00,
2013-11-09 09:16:00,56.7,28.6,29.29,West,262,5.8,5.8,34,0.00,,CLR,0.00,VWS V14.01,2013-11-09 15:16:00,
2013-11-09 09:18:00,56.8,28.8,29.29,WSW,258,8.1,10.1,34,0.00,,CLR,0.00,VWS V14.01,2013-11-09 15:18:00,
2013-11-09 09:19:00,56.8,28.8,29.29,WSW,244,8.1,8.1,34,0.00,,CLR,0.00,VWS V14.01,2013-11-09 15:19:00,
2013-11-09 09:20:00,56.8,28.8,29.29,WSW,256,8.7,8.7,34,0.00,,CLR,0.00,VWS V14.01,2013-11-09 15:20:00,
2013-11-09 09:21:00,56.8,28.8,29.29,WSW,252,7.6,8.3,34,0.00,,CLR,0.00,VWS V14.01,2013-11-09 15:21:00,
2013-11-09 09:22:00,57.0,29.0,29.29,West,274,5.8,7.6,34,0.00,,CLR,0.00,VWS V14.01,2013-11-09 15:22:00,
2013-11-09 09:23:00,57.2,29.1,29.29,West,269,5.8,6.3,34,0.00,,CLR,0.00,VWS V14.01,2013-11-09 15:23:00,
2013-11-09 09:24:00,57.2,29.1,29.29,WSW,246,4.0,5.8,34,0.00,,CLR,0.00,VWS V14.01,2013-11-09 15:24:00,
2013-11-09 09:25:00,57.4,29.3,29.29,WNW,290,6.3,8.3,34,0.00,,CLR,0.00,VWS V14.01,2013-11-09 15:25:00,
2013-11-09 09:26:00,57.4,29.3,29.29,NW,304,6.3,8.7,34,0.00,,CLR,0.00,VWS V14.01,2013-11-09 15:26:00,
2013-11-09 09:28:00,57.6,29.4,29.29,WNW,300,7.6,7.6,34,0.00,,CLR,0.00,VWS V14.01,2013-11-09 15:28:00,
2013-11-09 09:29:00,57.6,29.4,29.29,WNW,300,7.6,7.6,34,0.00,,CLR,0.00,VWS V14.01,2013-11-09 15:29:00,
2013-11-09 09:30:00,57.6,29.4,29.29,West,278,10.1,12.8,34,0.00,,CLR,0.00,VWS V14.01,2013-11-09 15:30:00,
2013-11-09 09:31:00,57.6,29.4,29.29,West,279,8.1,8.1,34,0.00,,CLR,0.00,VWS V14.01,2013-11-09 15:31:00,
2013-11-09 09:32:00,57.4,29.3,29.29,WNW,289,8.7,8.7,34,0.00,,CLR,0.00,VWS V14.01,2013-11-09 15:32:00,
2013-11-09 09:33:00,57.4,29.3,29.29,West,273,5.4,6.7,34,0.00,,CLR,0.00,VWS V14.01,2013-11-09 15:33:00,
2013-11-09 09:34:00,57.6,29.4,29.29,WNW,285,8.1,8.1,34,0.00,,CLR,0.00,VWS V14.01,2013-11-09 15:34:00,
2013-11-09 09:36:00,57.7,29.6,29.29,WNW,285,8.3,9.2,34,0.00,,CLR,0.00,VWS V14.01,2013-11-09 15:36:00,
2013-11-09 09:37:00,57.7,29.6,29.29,WSW,258,7.6,8.1,34,0.00,,CLR,0.00,VWS V14.01,2013-11-09 15:37:00,
2013-11-09 09:38:00,57.9,29.7,29.29,West,280,6.3,8.1,34,0.00,,CLR,0.00,VWS V14.01,2013-11-09 15:38:00,
2013-11-09 09:40:00,58.1,29.9,29.29,West,260,6.3,8.3,34,0.00,,CLR,0.00,VWS V14.01,2013-11-09 15:40:00,
2013-11-09 09:41:00,58.3,30.1,29.29,West,273,4.0,6.3,34,0.00,,CLR,0.00,VWS V14.01,2013-11-09 15:41:00,
2013-11-09 09:42:00,58.5,30.2,29.29,West,273,11.0,12.8,34,0.00,,CLR,0.00,VWS V14.01,2013-11-09 15:42:00,
2013-11-09 09:43:00,58.5,30.2,29.29,West,275,10.1,11.0,34,0.00,,CLR,0.00,VWS V14.01,2013-11-09 15:43:00,
2013-11-09 09:44:00,58.5,30.2,29.29,WNW,287,8.7,10.1,34,0.00,,CLR,0.00,VWS V14.01,2013-11-09 15:44:00,
2013-11-09 09:45:00,58.5,30.2,29.29,NNW,343,8.1,8.7,34,0.00,,CLR,0.00,VWS V14.01,2013-11-09 15:45:00,
2013-11-09 09:47:00,58.6,30.4,29.29,NW,312,5.4,5.4,34,0.00,,CLR,0.00,VWS V14.01,2013-11-09 15:47:00,
2013-11-09 09:48:00,58.6,30.4,29.29,SW,229,4.0,5.8,34,0.00,,CLR,0.00,VWS V14.01,2013-11-09 15:48:00,
2013-11-09 09:49:00,58.8,30.5,29.29,West,265,6.3,7.6,34,0.00,,CLR,0.00,VWS V14.01,2013-11-09 15:49:00,
2013-11-09 09:52:00,59.2,30.9,29.29,West,276,8.1,8.1,34,0.00,,CLR,0.00,VWS V14.01,2013-11-09 15:52:00,
2013-11-09 09:53:00,59.2,30.9,29.29,WNW,293,5.8,7.6,34,0.00,,CLR,0.00,VWS V14.01,2013-11-09 15:53:00,
2013-11-09 09:55:00,59.2,30.9,29.29,WSW,251,7.2,8.1,34,0.00,,CLR,0.00,VWS V14.01,2013-11-09 15:55:00,
2013-11-09 09:56:00,59.4,31.0,29.29,WNW,294,7.2,7.6,34,0.00,,CLR,0.00,VWS V14.01,2013-11-09 15:56:00,
2013-11-09 09:58:00,59.4,31.0,29.29,WSW,248,5.4,5.4,34,0.00,,CLR,0.00,VWS V14.01,2013-11-09 15:58:00,
2013-11-09 10:00:00,59.4,31.0,29.29,WNW,290,7.6,9.2,34,0.00,,CLR,0.00,VWS V14.01,2013-11-09 16:00:00,
2013-11-09 10:01:00,59.4,31.0,29.29,WSW,250,8.1,8.1,34,0.00,,CLR,0.00,VWS V14.01,2013-11-09 16:01:00,
2013-11-09 10:03:00,59.5,31.2,29.29,West,279,8.3,8.3,34,0.00,,CLR,0.00,VWS V14.01,2013-11-09 16:03:00,
2013-11-09 10:04:00,59.4,31.0,29.29,WNW,283,8.1,8.1,34,0.00,,CLR,0.00,VWS V14.01,2013-11-09 16:04:00,
2013-11-09 10:06:00,59.5,31.2,29.29,WNW,287,13.2,13.2,34,0.00,,CLR,0.00,VWS V14.01,2013-11-09 16:06:00,
2013-11-09 10:07:00,59.7,31.3,29.29,West,268,5.8,13.2,34,0.00,,CLR,0.00,VWS V14.01,2013-11-09 16:07:00,
2013-11-09 10:08:00,59.7,31.3,29.29,WSW,250,8.1,9.2,34,0.00,,CLR,0.00,VWS V14.01,2013-11-09 16:08:00,
2013-11-09 10:09:00,59.7,31.3,29.29,WSW,247,5.8,10.1,34,0.00,,CLR,0.00,VWS V14.01,2013-11-09 16:09:00,
2013-11-09 10:13:00,59.9,31.5,29.29,West,267,8.3,10.5,34,0.00,,CLR,0.00,VWS V14.01,2013-11-09 16:13:00,
2013-11-09 10:14:00,59.9,31.5,29.29,WNW,296,8.7,8.7,34,0.00,,CLR,0.00,VWS V14.01,2013-11-09 16:14:00,
2013-11-09 10:15:00,60.1,31.6,29.29,West,273,7.6,8.3,34,0.00,,CLR,0.00,VWS V14.01,2013-11-09 16:15:00,
2013-11-09 10:18:00,60.3,31.8,29.29,NW,318,5.8,6.3,34,0.00,,CLR,0.00,VWS V14.01,2013-11-09 16:18:00,
2013-11-09 10:19:00,60.3,31.8,29.29,West,265,8.1,8.1,34,0.00,,CLR,0.00,VWS V14.01,2013-11-09 16:19:00,
2013-11-09 10:20:00,60.3,31.8,29.29,West,274,4.0,6.3,34,0.00,,CLR,0.00,VWS V14.01,2013-11-09 16:20:00,
2013-11-09 10:24:00,60.6,32.1,29.29,WNW,283,8.7,8.7,34,0.00,,CLR,0.00,VWS V14.01,2013-11-09 16:24:00,
2013-11-09 10:25:00,60.6,32.1,29.29,WNW,300,5.4,8.7,34,0.00,,CLR,0.00,VWS V14.01,2013-11-09 16:25:00,
2013-11-09 10:26:00,60.8,30.8,29.29,WSW,251,6.3,6.3,32,0.00,,CLR,0.00,VWS V14.01,2013-11-09 16:26:00,
2013-11-09 10:28:00,61.0,30.9,29.29,West,259,5.8,10.5,32,0.00,,CLR,0.00,VWS V14.01,2013-11-09 16:28:00,
2013-11-09 10:30:00,61.2,31.1,29.29,West,271,5.4,5.8,32,0.00,,CLR,0.00,VWS V14.01,2013-11-09 16:30:00,
2013-11-09 10:31:00,61.3,31.2,29.29,WSW,249,6.3,10.5,32,0.00,,CLR,0.00,VWS V14.01,2013-11-09 16:31:00,
2013-11-09 10:33:00,61.5,31.4,29.29,West,267,8.3,10.1,32,0.00,,CLR,0.00,VWS V14.01,2013-11-09 16:33:00,
2013-11-09 10:36:00,61.3,31.2,29.29,WSW,247,8.3,8.3,32,0.00,,CLR,0.00,VWS V14.01,2013-11-09 16:36:00,
2013-11-09 10:37:00,61.5,31.4,29.29,West,276,5.4,8.3,32,0.00,,CLR,0.00,VWS V14.01,2013-11-09 16:37:00,
2013-11-09 10:39:00,61.7,31.6,29.29,West,269,8.7,8.7,32,0.00,,CLR,0.00,VWS V14.01,2013-11-09 16:39:00,
2013-11-09 10:41:00,61.7,31.6,29.29,WSW,247,6.3,8.7,32,0.00,,CLR,0.00,VWS V14.01,2013-11-09 16:41:00,
2013-11-09 10:42:00,61.7,31.6,29.29,WNW,288,7.6,8.3,32,0.00,,CLR,0.00,VWS V14.01,2013-11-09 16:42:00,
2013-11-09 10:43:00,61.7,31.6,29.29,West,262,8.3,11.0,32,0.00,,CLR,0.00,VWS V14.01,2013-11-09 16:43:00,
2013-11-09 10:44:00,61.9,31.7,29.29,West,263,5.8,8.3,32,0.00,,CLR,0.00,VWS V14.01,2013-11-09 16:44:00,
2013-11-09 10:47:00,62.1,31.9,29.29,WSW,253,7.2,8.1,32,0.00,,CLR,0.00,VWS V14.01,2013-11-09 16:47:00,
2013-11-09 10:48:00,62.1,31.9,29.29,WNW,283,8.1,8.3,32,0.00,,CLR,0.00,VWS V14.01,2013-11-09 16:48:00,
2013-11-09 10:49:00,62.1,31.9,29.29,WNW,285,7.6,7.6,32,0.00,,CLR,0.00,VWS V14.01,2013-11-09 16:49:00,
2013-11-09 10:50:00,62.2,32.0,29.29,West,276,7.6,8.1,32,0.00,,CLR,0.00,VWS V14.01,2013-11-09 16:50:00,
2013-11-09 10:53:00,62.6,32.3,29.29,West,275,5.8,10.1,32,0.00,,CLR,0.00,VWS V14.01,2013-11-09 16:53:00,
2013-11-09 10:54:00,62.6,32.3,29.29,WSW,252,7.6,7.6,32,0.00,,CLR,0.00,VWS V14.01,2013-11-09 16:54:00,
2013-11-09 10:56:00,62.6,32.3,29.29,West,270,11.0,11.0,32,0.00,,CLR,0.00,VWS V14.01,2013-11-09 16:56:00,
2013-11-09 10:59:00,62.8,32.5,29.29,WSW,241,10.1,10.1,32,0.00,,CLR,0.00,VWS V14.01,2013-11-09 16:59:00,
2013-11-09 11:01:00,63.0,32.7,29.29,NNW,329,8.1,8.1,32,0.00,,CLR,0.00,VWS V14.01,2013-11-09 17:01:00,
2013-11-09 11:02:00,63.1,32.8,29.29,NW,314,7.6,10.1,32,0.00,,CLR,0.00,VWS V14.01,2013-11-09 17:02:00,
2013-11-09 11:04:00,63.0,32.7,29.29,NNW,327,8.3,8.3,32,0.00,,CLR,0.00,VWS V14.01,2013-11-09 17:04:00,
2013-11-09 11:05:00,63.1,32.8,29.29,WNW,299,8.3,11.0,32,0.00,,CLR,0.00,VWS V14.01,2013-11-09 17:05:00,
2013-11-09 11:06:00,63.1,32.8,29.29,WNW,292,10.5,10.5,32,0.00,,CLR,0.00,VWS V14.01,2013-11-09 17:06:00,
2013-11-09 11:07:00,63.1,32.8,29.29,West,277,7.6,10.5,32,0.00,,CLR,0.00,VWS V14.01,2013-11-09 17:07:00,
2013-11-09 11:10:00,63.1,32.8,29.29,NW,305,8.1,9.6,32,0.00,,CLR,0.00,VWS V14.01,2013-11-09 17:10:00,
2013-11-09 11:12:00,63.3,33.0,29.29,West,274,6.7,12.3,32,0.00,,CLR,0.00,VWS V14.01,2013-11-09 17:12:00,
2013-11-09 11:13:00,63.1,32.8,29.29,West,278,5.8,6.3,32,0.00,,CLR,0.00,VWS V14.01,2013-11-09 17:13:00,
2013-11-09 11:15:00,63.3,33.0,29.29,West,270,5.4,9.2,32,0.00,,CLR,0.00,VWS V14.01,2013-11-09 17:15:00,
2013-11-09 11:16:00,63.7,33.3,29.29,WNW,300,5.8,7.6,32,0.00,,CLR,0.00,VWS V14.01,2013-11-09 17:16:00,
2013-11-09 11:17:00,63.5,33.1,29.29,West,278,8.3,8.3,32,0.00,,CLR,0.00,VWS V14.01,2013-11-09 17:17:00,
2013-11-09 11:18:00,63.7,33.3,29.29,NW,315,5.4,7.6,32,0.00,,CLR,0.00,VWS V14.01,2013-11-09 17:18:00,
2013-11-09 11:19:00,63.9,33.5,29.29,WNW,284,5.8,5.8,32,0.00,,CLR,0.00,VWS V14.01,2013-11-09 17:19:00,
2013-11-09 11:20:00,64.0,33.6,29.29,West,277,8.1,11.0,32,0.00,,CLR,0.00,VWS V14.01,2013-11-09 17:20:00,
2013-11-09 11:21:00,63.9,33.5,29.29,West,278,8.7,11.0,32,0.00,,CLR,0.00,VWS V14.01,2013-11-09 17:21:00,
2013-11-09 11:22:00,63.9,33.5,29.29,WNW,284,9.2,10.5,32,0.00,,CLR,0.00,VWS V14.01,2013-11-09 17:22:00,
2013-11-09 11:23:00,63.9,33.5,29.29,West,267,8.1,8.3,32,0.00,,CLR,0.00,VWS V14.01,2013-11-09 17:23:00,
2013-11-09 11:24:00,63.9,33.5,29.29,West,276,7.6,8.7,32,0.00,,CLR,0.00,VWS V14.01,2013-11-09 17:24:00,
2013-11-09 11:25:00,63.9,33.5,29.29,NW,317,10.5,10.5,32,0.00,,CLR,0.00,VWS V14.01,2013-11-09 17:25:00,
2013-11-09 11:27:00,63.7,33.3,29.29,WNW,291,10.5,10.5,32,0.00,,CLR,0.00,VWS V14.01,2013-11-09 17:27:00,
2013-11-09 11:29:00,63.9,33.5,29.29,NW,315,16.8,16.8,32,0.00,,CLR,0.00,VWS V14.01,2013-11-09 17:29:00,
2013-11-09 11:30:00,63.5,33.1,29.29,WNW,291,15.9,16.8,32,0.00,,CLR,0.00,VWS V14.01,2013-11-09 17:30:00,
2013-11-09 11:31:00,63.9,33.5,29.29,West,270,4.5,5.8,32,0.00,,CLR,0.00,VWS V14.01,2013-11-09 17:31:00,
2013-11-09 11:32:00,63.9,33.5,29.29,NW,304,7.6,7.6,32,0.00,,CLR,0.00,VWS V14.01,2013-11-09 17:32:00,
2013-11-09 11:33:00,63.9,33.5,29.29,WNW,283,6.3,8.3,32,0.00,,CLR,0.00,VWS V14.01,2013-11-09 17:33:00,
2013-11-09 11:35:00,64.0,33.6,29.29,NW,317,11.0,11.0,32,0.00,,CLR,0.00,VWS V14.01,2013-11-09 17:35:00,
2013-11-09 11:37:00,64.4,32.3,29.29,West,276,7.6,8.1,30,0.00,,CLR,0.00,VWS V14.01,2013-11-09 17:37:00,
2013-11-09 11:38:00,64.4,32.3,29.29,WNW,293,8.7,9.6,30,0.00,,CLR,0.00,VWS V14.01,2013-11-09 17:38:00,
2013-11-09 11:39:00,64.4,32.3,29.29,West,280,6.3,6.3,30,0.00,,CLR,0.00,VWS V14.01,2013-11-09 17:39:00,
2013-11-09 11:41:00,64.8,32.6,29.29,NW,314,8.1,8.1,30,0.00,,CLR,0.00,VWS V14.01,2013-11-09 17:41:00,
2013-11-09 11:43:00,64.9,32.8,29.29,NNW,335,11.0,12.8,30,0.00,,CLR,0.00,VWS V14.01,2013-11-09 17:43:00,
2013-11-09 11:44:00,65.1,32.9,29.29,West,271,8.7,10.5,30,0.00,,CLR,0.00,VWS V14.01,2013-11-09 17:44:00,
2013-11-09 11:45:00,64.8,32.6,29.29,NW,313,10.5,14.1,30,0.00,,CLR,0.00,VWS V14.01,2013-11-09 17:45:00,
2013-11-09 11:47:00,64.6,32.5,29.29,West,277,7.6,11.0,30,0.00,,CLR,0.00,VWS V14.01,2013-11-09 17:47:00,
2013-11-09 11:48:00,64.8,32.6,29.29,West,274,10.5,10.5,30,0.00,,CLR,0.00,VWS V14.01,2013-11-09 17:48:00,
2013-11-09 11:50:00,64.9,32.8,29.29,WNW,302,10.1,12.8,30,0.00,,CLR,0.00,VWS V14.01,2013-11-09 17:50:00,
2013-11-09 11:51:00,64.4,32.3,29.29,WNW,288,10.1,13.2,30,0.00,,CLR,0.00,VWS V14.01,2013-11-09 17:51:00,
2013-11-09 11:52:00,64.4,32.3,29.29,NW,306,10.1,10.1,30,0.00,,CLR,0.00,VWS V14.01,2013-11-09 17:52:00,
2013-11-09 11:54:00,64.8,32.6,29.26,NNW,328,7.6,10.1,30,0.00,,CLR,0.00,VWS V14.01,2013-11-09 17:54:00,
2013-11-09 11:55:00,64.8,32.6,29.26,NW,306,4.9,8.3,30,0.00,,CLR,0.00,VWS V14.01,2013-11-09 17:55:00,
2013-11-09 11:57:00,64.9,32.8,29.26,West,278,11.9,11.9,30,0.00,,CLR,0.00,VWS V14.01,2013-11-09 17:57:00,
2013-11-09 11:59:00,65.1,32.9,29.26,WNW,297,10.5,12.8,30,0.00,,CLR,0.00,VWS V14.01,2013-11-09 17:59:00,
2013-11-09 12:00:00,65.1,32.9,29.26,WNW,290,11.0,11.0,30,0.00,,CLR,0.00,VWS V14.01,2013-11-09 18:00:00,
2013-11-09 12:01:00,65.3,33.1,29.26,NW,318,11.0,11.0,30,0.00,,CLR,0.00,VWS V14.01,2013-11-09 18:01:00,
2013-11-09 12:02:00,65.3,33.1,29.26,West,280,5.4,10.5,30,0.00,,CLR,0.00,VWS V14.01,2013-11-09 18:02:00,
2013-11-09 12:05:00,64.9,32.8,29.26,WNW,301,12.8,12.8,30,0.00,,CLR,0.00,VWS V14.01,2013-11-09 18:05:00,
2013-11-09 12:06:00,65.1,32.9,29.26,NW,319,8.3,11.0,30,0.00,,CLR,0.00,VWS V14.01,2013-11-09 18:06:00,
2013-11-09 12:08:00,65.5,33.3,29.26,NW,318,11.9,12.3,30,0.00,,CLR,0.04,VWS V14.01,2013-11-09 18:08:00,
2013-11-09 12:11:00,65.5,33.3,29.26,NW,307,11.0,12.8,30,0.00,,CLR,0.00,VWS V14.01,2013-11-09 18:11:00,
2013-11-09 12:12:00,65.7,33.4,29.26,WNW,302,8.1,8.7,30,0.00,,CLR,0.00,VWS V14.01,2013-11-09 18:12:00,
2013-11-09 12:13:00,65.7,33.4,29.26,NW,323,17.4,17.4,30,0.00,,CLR,0.00,VWS V14.01,2013-11-09 18:13:00,
2013-11-09 12:16:00,65.1,32.9,29.26,NW,307,12.8,13.2,30,0.00,,CLR,0.00,VWS V14.01,2013-11-09 18:16:00,
2013-11-09 12:17:00,65.3,33.1,29.26,WNW,293,15.4,15.4,30,0.00,,CLR,0.00,VWS V14.01,2013-11-09 18:17:00,
2013-11-09 12:18:00,64.9,32.8,29.26,NW,310,13.2,17.4,30,0.00,,CLR,0.00,VWS V14.01,2013-11-09 18:18:00,
2013-11-09 12:22:00,65.1,32.9,29.26,NW,322,11.0,14.5,30,0.00,,CLR,0.00,VWS V14.01,2013-11-09 18:22:00,
2013-11-09 12:23:00,65.1,32.9,29.26,NNW,330,10.1,13.2,30,0.00,,CLR,0.00,VWS V14.01,2013-11-09 18:23:00,
2013-11-09 12:24:00,65.1,32.9,29.26,West,277,8.3,12.8,30,0.00,,CLR,0.00,VWS V14.01,2013-11-09 18:24:00,
2013-11-09 12:27:00,65.1,32.9,29.26,WNW,291,10.1,10.1,30,0.00,,CLR,0.00,VWS V14.01,2013-11-09 18:27:00,
2013-11-09 12:28:00,65.3,33.1,29.26,WNW,289,10.5,10.5,30,0.00,,CLR,0.00,VWS V14.01,2013-11-09 18:28:00,
2013-11-09 12:29:00,65.3,33.1,29.26,West,275,8.3,8.3,30,0.00,,CLR,0.00,VWS V14.01,2013-11-09 18:29:00,
2013-11-09 12:30:00,65.5,33.3,29.26,NNW,331,5.4,8.7,30,0.00,,CLR,0.00,VWS V14.01,2013-11-09 18:30:00,
2013-11-09 12:33:00,65.5,33.3,29.26,NW,304,10.1,10.5,30,0.00,,CLR,0.00,VWS V14.01,2013-11-09 18:33:00,
2013-11-09 12:34:00,65.5,33.3,29.26,West,281,5.8,13.2,30,0.00,,CLR,0.00,VWS V14.01,2013-11-09 18:34:00,
2013-11-09 12:35:00,65.7,33.4,29.26,NW,310,8.3,8.3,30,0.00,,CLR,0.00,VWS V14.01,2013-11-09 18:35:00,
2013-11-09 12:36:00,65.7,33.4,29.26,NW,322,8.3,12.3,30,0.00,,CLR,0.00,VWS V14.01,2013-11-09 18:36:00,
2013-11-09 12:38:00,65.8,33.6,29.26,NW,309,11.0,11.4,30,0.00,,CLR,0.00,VWS V14.01,2013-11-09 18:38:00,
2013-11-09 12:39:00,65.8,33.6,29.26,WNW,287,13.2,13.2,30,0.00,,CLR,0.00,VWS V14.01,2013-11-09 18:39:00,
2013-11-09 12:40:00,65.8,33.6,29.26,West,280,4.0,12.8,30,0.00,,CLR,0.00,VWS V14.01,2013-11-09 18:40:00,
2013-11-09 12:41:00,66.0,33.7,29.26,NW,304,10.5,10.5,30,0.00,,CLR,0.00,VWS V14.01,2013-11-09 18:41:00,
2013-11-09 12:42:00,65.8,33.6,29.26,NNW,340,12.8,14.1,30,0.00,,CLR,0.00,VWS V14.01,2013-11-09 18:42:00,
2013-11-09 12:44:00,65.8,33.6,29.26,NW,314,11.4,11.4,30,0.00,,CLR,0.00,VWS V14.01,2013-11-09 18:44:00,
2013-11-09 12:46:00,66.0,33.7,29.26,NNW,332,8.3,9.6,30,0.00,,CLR,0.00,VWS V14.01,2013-11-09 18:46:00,
2013-11-09 12:48:00,66.2,33.9,29.26,WNW,289,10.5,10.5,30,0.00,,CLR,0.00,VWS V14.01,2013-11-09 18:48:00,
2013-11-09 12:49:00,66.2,33.9,29.26,WNW,297,6.3,10.5,30,0.00,,CLR,0.00,VWS V14.01,2013-11-09 18:49:00,
2013-11-09 12:53:00,66.2,33.9,29.26,West,276,8.3,8.7,30,0.00,,CLR,0.00,VWS V14.01,2013-11-09 18:53:00,
2013-11-09 12:54:00,66.2,33.9,29.26,WNW,293,12.3,13.6,30,0.00,,CLR,0.00,VWS V14.01,2013-11-09 18:54:00,
2013-11-09 12:55:00,66.2,33.9,29.26,WNW,284,8.1,12.3,30,0.00,,CLR,0.00,VWS V14.01,2013-11-09 18:55:00,
2013-11-09 12:58:00,66.2,33.9,29.26,WNW,286,5.4,10.1,30,0.00,,CLR,0.00,VWS V14.01,2013-11-09 18:58:00,
2013-11-09 12:59:00,66.4,34.0,29.26,West,262,4.9,5.4,30,0.00,,CLR,0.00,VWS V14.01,2013-11-09 18:59:00,
2013-11-09 13:00:00,66.6,34.2,29.26,West,277,5.8,8.1,30,0.00,,CLR,0.00,VWS V14.01,2013-11-09 19:00:00,
2013-11-09 13:01:00,66.7,34.3,29.26,WNW,301,8.3,8.3,30,0.00,,CLR,0.00,VWS V14.01,2013-11-09 19:01:00,
2013-11-09 13:04:00,66.6,34.2,29.26,WNW,297,7.6,15.4,30,0.00,,CLR,0.00,VWS V14.01,2013-11-09 19:04:00,
2013-11-09 13:05:00,66.6,34.2,29.26,NW,320,7.6,12.8,30,0.00,,CLR,0.00,VWS V14.01,2013-11-09 19:05:00,
2013-11-09 13:06:00,66.9,34.5,29.26,NW,316,5.4,8.7,30,0.00,,CLR,0.00,VWS V14.01,2013-11-09 19:06:00,
2013-11-09 13:08:00,66.9,34.5,29.26,NW,314,8.3,8.3,30,0.00,,CLR,0.00,VWS V14.01,2013-11-09 19:08:00,
2013-11-09 13:09:00,66.9,34.5,29.26,NW,306,12.8,12.8,30,0.00,,CLR,0.00,VWS V14.01,2013-11-09 19:09:00,
2013-11-09 13:10:00,66.9,34.5,29.26,WNW,285,9.6,11.0,30,0.00,,CLR,0.00,VWS V14.01,2013-11-09 19:10:00,
2013-11-09 13:12:00,66.7,34.3,29.26,West,267,7.6,12.8,30,0.00,,CLR,0.00,VWS V14.01,2013-11-09 19:12:00,
2013-11-09 13:13:00,66.7,34.3,29.26,West,279,8.7,8.7,30,0.00,,CLR,0.00,VWS V14.01,2013-11-09 19:13:00,
2013-11-09 13:15:00,66.7,34.3,29.26,NNW,333,8.3,13.2,30,0.00,,CLR,0.00,VWS V14.01,2013-11-09 19:15:00,
2013-11-09 13:16:00,66.9,34.5,29.26,WNW,289,9.6,15.0,30,0.00,,CLR,0.00,VWS V14.01,2013-11-09 19:16:00,
2013-11-09 13:18:00,66.9,34.5,29.26,NW,314,15.4,15.4,30,0.00,,CLR,0.00,VWS V14.01,2013-11-09 19:18:00,
2013-11-09 13:19:00,66.9,34.5,29.26,WNW,294,10.1,10.1,30,0.00,,CLR,0.00,VWS V14.01,2013-11-09 19:19:00,
2013-11-09 13:20:00,66.9,34.5,29.26,NW,316,10.5,11.0,30,0.00,,CLR,0.00,VWS V14.01,2013-11-09 19:20:00,
2013-11-09 13:22:00,67.1,34.7,29.26,NW,318,11.9,11.9,30,0.00,,CLR,0.00,VWS V14.01,2013-11-09 19:22:00,
2013-11-09 13:23:00,67.1,34.7,29.26,WNW,282,10.5,11.0,30,0.00,,CLR,0.00,VWS V14.01,2013-11-09 19:23:00,
2013-11-09 13:24:00,67.1,34.7,29.26,WNW,295,12.8,12.8,30,0.00,,CLR,0.00,VWS V14.01,2013-11-09 19:24:00,
2013-11-09 13:25:00,67.1,34.7,29.26,NW,305,8.3,11.0,30,0.00,,CLR,0.00,VWS V14.01,2013-11-09 19:25:00,
2013-11-09 13:28:00,67.5,35.0,29.26,North,353,7.6,7.6,30,0.00,,CLR,0.00,VWS V14.01,2013-11-09 19:28:00,
2013-11-09 13:29:00,67.5,35.0,29.26,NW,318,13.2,13.2,30,0.00,,CLR,0.00,VWS V14.01,2013-11-09 19:29:00,
2013-11-09 13:30:00,67.6,35.1,29.26,NW,307,12.8,12.8,30,0.00,,CLR,0.00,VWS V14.01,2013-11-09 19:30:00,
2013-11-09 13:31:00,67.8,35.3,29.26,NW,325,11.0,11.0,30,0.00,,CLR,0.00,VWS V14.01,2013-11-09 19:31:00,
2013-11-09 13:34:00,68.0,35.4,29.26,West,269,4.5,8.1,30,0.00,,CLR,0.00,VWS V14.01,2013-11-09 19:34:00,
2013-11-09 13:35:00,67.8,35.3,29.26,West,280,8.1,8.1,30,0.00,,CLR,0.00,VWS V14.01,2013-11-09 19:35:00,
2013-11-09 13:36:00,68.0,35.4,29.26,West,277,5.4,10.5,30,0.00,,CLR,0.00,VWS V14.01,2013-11-09 19:36:00,
2013-11-09 13:37:00,68.0,35.4,29.26,WNW,295,8.1,8.1,30,0.00,,CLR,0.00,VWS V14.01,2013-11-09 19:37:00,
2013-11-09 13:38:00,68.2,35.6,29.26,WNW,295,8.1,8.1,30,0.00,,CLR,0.00,VWS V14.01,2013-11-09 19:38:00,
2013-11-09 13:39:00,68.2,35.6,29.26,WNW,286,12.3,12.3,30,0.00,,CLR,0.00,VWS V14.01,2013-11-09 19:39:00,
2013-11-09 13:41:00,67.6,35.1,29.26,West,278,12.3,13.2,30,0.00,,CLR,0.00,VWS V14.01,2013-11-09 19:41:00,
2013-11-09 13:43:00,67.5,35.0,29.26,NW,307,14.5,14.5,30,0.00,,CLR,0.00,VWS V14.01,2013-11-09 19:43:00,
2013-11-09 13:44:00,67.5,35.0,29.26,NW,305,15.4,15.4,30,0.00,,CLR,0.00,VWS V14.01,2013-11-09 19:44:00,
2013-11-09 13:45:00,67.3,34.8,29.26,NW,308,14.1,17.4,30,0.00,,CLR,0.00,VWS V14.01,2013-11-09 19:45:00,
2013-11-09 13:46:00,67.3,34.8,29.26,WNW,295,12.3,14.1,30,0.00,,CLR,0.00,VWS V14.01,2013-11-09 19:46:00,
2013-11-09 13:48:00,67.3,34.8,29.26,WNW,301,5.8,12.8,30,0.00,,CLR,0.00,VWS V14.01,2013-11-09 19:48:00,
2013-11-09 13:49:00,67.1,34.7,29.26,NW,309,22.4,22.4,30,0.00,,CLR,0.00,VWS V14.01,2013-11-09 19:49:00,
2013-11-09 13:50:00,66.9,34.5,29.26,NW,321,12.8,14.1,30,0.00,,CLR,0.00,VWS V14.01,2013-11-09 19:50:00,
2013-11-09 13:51:00,66.9,34.5,29.26,NW,311,11.0,15.4,30,0.00,,CLR,0.00,VWS V14.01,2013-11-09 19:51:00,
2013-11-09 13:53:00,66.9,34.5,29.26,NNW,328,15.4,15.4,30,0.00,,CLR,0.00,VWS V14.01,2013-11-09 19:53:00,
2013-11-09 13:55:00,66.7,34.3,29.26,NW,312,11.0,13.2,30,0.00,,CLR,0.00,VWS V14.01,2013-11-09 19:55:00,
2013-11-09 13:56:00,66.7,34.3,29.26,NNW,334,12.8,17.4,30,0.00,,CLR,0.00,VWS V14.01,2013-11-09 19:56:00,
2013-11-09 13:57:00,66.7,34.3,29.26,NW,321,11.0,15.0,30,0.00,,CLR,0.00,VWS V14.01,2013-11-09 19:57:00,
2013-11-09 13:58:00,66.7,34.3,29.26,NW,322,12.3,13.6,30,0.00,,CLR,0.00,VWS V14.01,2013-11-09 19:58:00,
2013-11-09 13:59:00,66.9,34.5,29.26,NW,306,10.1,10.1,30,0.00,,CLR,0.00,VWS V14.01,2013-11-09 19:59:00,
2013-11-09 14:00:00,66.9,34.5,29.26,West,280,11.9,11.9,30,0.00,,CLR,0.00,VWS V14.01,2013-11-09 20:00:00,
2013-11-09 14:02:00,67.1,34.7,29.26,WNW,294,8.3,8.3,30,0.00,,CLR,0.00,VWS V14.01,2013-11-09 20:02:00,
2013-11-09 14:03:00,67.3,34.8,29.26,WNW,298,11.4,11.4,30,0.00,,CLR,0.00,VWS V14.01,2013-11-09 20:03:00,
2013-11-09 14:04:00,67.3,34.8,29.26,West,280,5.8,13.2,30,0.00,,CLR,0.00,VWS V14.01,2013-11-09 20:04:00,
2013-11-09 14:05:00,67.3,34.8,29.26,WNW,295,10.5,10.5,30,0.00,,CLR,0.00,VWS V14.01,2013-11-09 20:05:00,
2013-11-09 14:09:00,67.1,34.7,29.26,NW,309,10.5,12.3,30,0.00,,CLR,0.00,VWS V14.01,2013-11-09 20:09:00,
2013-11-09 14:10:00,67.1,34.7,29.26,NW,315,8.1,17.4,30,0.00,,CLR,0.00,VWS V14.01,2013-11-09 20:10:00,
2013-11-09 14:12:00,66.9,34.5,29.26,WNW,288,14.5,15.4,30,0.00,,CLR,0.00,VWS V14.01,2013-11-09 20:12:00,
2013-11-09 14:14:00,66.9,34.5,29.26,NW,308,14.5,14.5,30,0.00,,CLR,0.00,VWS V14.01,2013-11-09 20:14:00,
2013-11-09 14:15:00,66.9,34.5,29.26,NW,315,12.8,13.2,30,0.00,,CLR,0.00,VWS V14.01,2013-11-09 20:15:00,
2013-11-09 14:16:00,66.9,34.5,29.26,WNW,303,8.3,13.2,30,0.00,,CLR,0.00,VWS V14.01,2013-11-09 20:16:00,
2013-11-09 14:17:00,66.9,34.5,29.26,NNW,333,11.0,13.6,30,0.00,,CLR,0.00,VWS V14.01,2013-11-09 20:17:00,
2013-11-09 14:18:00,66.9,34.5,29.26,NNW,327,8.3,8.3,30,0.00,,CLR,0.00,VWS V14.01,2013-11-09 20:18:00,
2013-11-09 14:19:00,66.9,34.5,29.26,NW,322,15.0,15.0,30,0.00,,CLR,0.00,VWS V14.01,2013-11-09 20:19:00,
2013-11-09 14:20:00,66.9,34.5,29.26,NNW,331,10.1,15.0,30,0.00,,CLR,0.00,VWS V14.01,2013-11-09 20:20:00,
2013-11-09 14:21:00,66.9,34.5,29.26,NW,319,12.3,15.0,30,0.00,,CLR,0.00,VWS V14.01,2013-11-09 20:21:00,
2013-11-09 14:22:00,66.9,34.5,29.26,West,263,9.2,11.4,30,0.00,,CLR,0.00,VWS V14.01,2013-11-09 20:22:00,
2013-11-09 14:23:00,67.3,34.8,29.26,West,278,8.7,8.7,30,0.00,,CLR,0.00,VWS V14.01,2013-11-09 20:23:00,
2013-11-09 14:24:00,66.9,34.5,29.26,NW,306,8.7,17.0,30,0.00,,CLR,0.00,VWS V14.01,2013-11-09 20:24:00,
2013-11-09 14:26:00,66.9,34.5,29.26,NW,307,8.3,8.3,30,0.00,,CLR,0.00,VWS V14.01,2013-11-09 20:26:00,
2013-11-09 14:27:00,67.1,34.7,29.26,NW,307,8.3,11.0,30,0.00,,CLR,0.00,VWS V14.01,2013-11-09 20:27:00,
2013-11-09 14:28:00,67.3,34.8,29.26,WNW,293,7.6,8.3,30,0.00,,CLR,0.00,VWS V14.01,2013-11-09 20:28:00,
2013-11-09 14:29:00,67.3,34.8,29.26,WNW,283,10.5,11.0,30,0.00,,CLR,0.00,VWS V14.01,2013-11-09 20:29:00,
2013-11-09 14:31:00,67.3,34.8,29.26,WNW,287,12.8,12.8,30,0.00,,CLR,0.00,VWS V14.01,2013-11-09 20:31:00,
2013-11-09 14:32:00,67.3,34.8,29.26,NW,325,11.0,12.8,30,0.00,,CLR,0.00,VWS V14.01,2013-11-09 20:32:00,
2013-11-09 14:33:00,66.9,34.5,29.26,NW,315,15.0,15.0,30,0.00,,CLR,0.00,VWS V14.01,2013-11-09 20:33:00,
2013-11-09 14:35:00,67.1,34.7,29.26,WNW,303,8.1,10.1,30,0.00,,CLR,0.00,VWS V14.01,2013-11-09 20:35:00,
2013-11-09 14:37:00,66.9,34.5,29.26,NW,311,15.0,18.3,30,0.00,,CLR,0.00,VWS V14.01,2013-11-09 20:37:00,
2013-11-09 14:38:00,66.9,34.5,29.26,WNW,291,10.5,12.8,30,0.00,,CLR,0.00,VWS V14.01,2013-11-09 20:38:00,
2013-11-09 14:39:00,66.9,34.5,29.26,NW,312,8.7,10.5,30,0.00,,CLR,0.00,VWS V14.01,2013-11-09 20:39:00,
2013-11-09 14:41:00,66.9,34.5,29.26,NW,321,8.7,8.7,30,0.00,,CLR,0.00,VWS V14.01,2013-11-09 20:41:00,
2013-11-09 14:42:00,67.1,34.7,29.26,NNW,331,8.1,12.8,30,0.00,,CLR,0.00,VWS V14.01,2013-11-09 20:42:00,
2013-11-09 14:43:00,67.1,34.7,29.26,WNW,295,8.7,10.1,30,0.00,,CLR,0.00,VWS V14.01,2013-11-09 20:43:00,
2013-11-09 14:46:00,67.1,34.7,29.26,WNW,287,6.3,8.3,30,0.00,,CLR,0.00,VWS V14.01,2013-11-09 20:46:00,
2013-11-09 14:48:00,67.3,34.8,29.26,NW,322,15.4,15.4,30,0.00,,CLR,0.00,VWS V14.01,2013-11-09 20:48:00,
2013-11-09 14:49:00,66.9,34.5,29.26,NW,316,13.2,13.2,30,0.00,,CLR,0.00,VWS V14.01,2013-11-09 20:49:00,
2013-11-09 14:52:00,66.7,34.3,29.26,NW,317,15.0,15.0,30,0.00,,CLR,0.00,VWS V14.01,2013-11-09 20:52:00,
2013-11-09 14:53:00,66.7,34.3,29.26,WNW,303,10.1,11.0,30,0.00,,CLR,0.00,VWS V14.01,2013-11-09 20:53:00,
2013-11-09 14:55:00,66.7,34.3,29.26,WNW,295,11.0,11.0,30,0.00,,CLR,0.00,VWS V14.01,2013-11-09 20:55:00,
2013-11-09 14:58:00,66.6,34.2,29.26,WNW,300,12.8,12.8,30,0.00,,CLR,0.00,VWS V14.01,2013-11-09 20:58:00,
2013-11-09 15:00:00,66.6,34.2,29.26,NW,317,12.8,12.8,30,0.00,,CLR,0.00,VWS V14.01,2013-11-09 21:00:00,
2013-11-09 15:04:00,66.4,34.0,29.26,NW,321,6.3,8.7,30,0.00,,CLR,0.00,VWS V14.01,2013-11-09 21:04:00,
2013-11-09 15:05:00,66.4,34.0,29.26,NNW,332,12.8,12.8,30,0.00,,CLR,0.00,VWS V14.01,2013-11-09 21:05:00,
2013-11-09 15:06:00,66.4,34.0,29.26,WNW,302,13.2,13.2,30,0.00,,CLR,0.00,VWS V14.01,2013-11-09 21:06:00,
2013-11-09 15:09:00,66.0,33.7,29.26,NW,313,16.8,16.8,30,0.00,,CLR,0.00,VWS V14.01,2013-11-09 21:09:00,
2013-11-09 15:10:00,65.8,33.6,29.26,NW,324,17.4,17.4,30,0.00,,CLR,0.00,VWS V14.01,2013-11-09 21:10:00,
2013-11-09 15:11:00,65.8,33.6,29.26,NNW,328,13.2,17.9,30,0.00,,CLR,0.00,VWS V14.01,2013-11-09 21:11:00,
2013-11-09 15:12:00,65.8,33.6,29.26,NNW,329,15.4,15.4,30,0.00,,CLR,0.00,VWS V14.01,2013-11-09 21:12:00,
2013-11-09 15:14:00,65.8,33.6,29.26,NW,322,10.5,10.5,30,0.00,,CLR,0.00,VWS V14.01,2013-11-09 21:14:00,
2013-11-09 15:15:00,65.7,33.4,29.26,NW,317,10.5,12.8,30,0.00,,CLR,0.00,VWS V14.01,2013-11-09 21:15:00,
2013-11-09 15:16:00,65.7,33.4,29.26,WNW,294,13.2,13.6,30,0.00,,CLR,0.00,VWS V14.01,2013-11-09 21:16:00,
2013-11-09 15:18:00,65.7,33.4,29.26,NW,324,10.5,11.4,30,0.00,,CLR,0.00,VWS V14.01,2013-11-09 21:18:00,
2013-11-09 15:19:00,65.7,33.4,29.26,WNW,299,12.8,12.8,30,0.00,,CLR,0.00,VWS V14.01,2013-11-09 21:19:00,
2013-11-09 15:20:00,65.7,33.4,29.26,WNW,295,15.0,15.0,30,0.00,,CLR,0.00,VWS V14.01,2013-11-09 21:20:00,
2013-11-09 15:22:00,65.7,33.4,29.26,NW,324,13.2,14.5,30,0.00,,CLR,0.00,VWS V14.01,2013-11-09 21:22:00,
2013-11-09 15:23:00,65.5,33.3,29.26,NW,325,12.8,20.6,30,0.00,,CLR,0.00,VWS V14.01,2013-11-09 21:23:00,
2013-11-09 15:24:00,65.5,33.3,29.26,NW,322,13.6,16.3,30,0.00,,CLR,0.00,VWS V14.01,2013-11-09 21:24:00,
2013-11-09 15:25:00,65.5,33.3,29.26,NW,315,11.4,13.6,30,0.00,,CLR,0.00,VWS V14.01,2013-11-09 21:25:00,
2013-11-09 15:26:00,65.5,33.3,29.26,NW,307,12.3,12.8,30,0.00,,CLR,0.00,VWS V14.01,2013-11-09 21:26:00,
2013-11-09 15:28:00,65.3,33.1,29.26,WNW,296,10.5,11.0,30,0.00,,CLR,0.00,VWS V14.01,2013-11-09 21:28:00,
2013-11-09 15:30:00,65.1,32.9,29.26,NW,320,13.6,13.6,30,0.00,,CLR,0.00,VWS V14.01,2013-11-09 21:30:00,
2013-11-09 15:31:00,65.1,32.9,29.26,NW,319,13.6,13.6,30,0.00,,CLR,0.00,VWS V14.01,2013-11-09 21:31:00,
2013-11-09 15:34:00,65.1,32.9,29.26,NW,326,10.5,12.3,30,0.00,,CLR,0.00,VWS V14.01,2013-11-09 21:34:00,
2013-11-09 15:36:00,64.9,32.8,29.26,NNW,346,12.8,14.5,30,0.00,,CLR,0.00,VWS V14.01,2013-11-09 21:36:00,
2013-11-09 15:37:00,64.9,32.8,29.26,NW,322,10.5,13.2,30,0.00,,CLR,0.00,VWS V14.01,2013-11-09 21:37:00,
2013-11-09 15:38:00,64.9,32.8,29.26,WNW,293,15.0,15.0,30,0.00,,CLR,0.00,VWS V14.01,2013-11-09 21:38:00,
2013-11-09 15:39:00,64.8,32.6,29.26,NW,318,11.0,11.0,30,0.00,,CLR,0.00,VWS V14.01,2013-11-09 21:39:00,
2013-11-09 15:42:00,64.8,32.6,29.26,NW,321,13.2,13.2,30,0.00,,CLR,0.00,VWS V14.01,2013-11-09 21:42:00,
2013-11-09 15:43:00,64.4,32.3,29.26,NNW,330,11.0,11.0,30,0.00,,CLR,0.00,VWS V14.01,2013-11-09 21:43:00,
2013-11-09 15:44:00,64.4,32.3,29.26,NW,307,11.4,12.3,30,0.00,,CLR,0.00,VWS V14.01,2013-11-09 21:44:00,
2013-11-09 15:46:00,64.4,32.3,29.26,NW,321,10.1,11.0,30,0.00,,CLR,0.00,VWS V14.01,2013-11-09 21:46:00,
2013-11-09 15:48:00,64.2,33.8,29.26,NW,322,12.8,13.2,32,0.00,,CLR,0.00,VWS V14.01,2013-11-09 21:48:00,
2013-11-09 15:49:00,64.2,33.8,29.26,NNW,343,8.7,13.2,32,0.00,,CLR,0.00,VWS V14.01,2013-11-09 21:49:00,
2013-11-09 15:50:00,64.2,33.8,29.26,NW,320,12.8,12.8,32,0.00,,CLR,0.00,VWS V14.01,2013-11-09 21:50:00,
2013-11-09 15:51:00,64.2,33.8,29.26,NNW,331,10.5,12.3,32,0.00,,CLR,0.00,VWS V14.01,2013-11-09 21:51:00,
2013-11-09 15:54:00,64.0,33.6,29.29,NNW,337,10.5,10.5,32,0.00,,CLR,0.00,VWS V14.01,2013-11-09 21:54:00,
2013-11-09 15:55:00,63.9,33.5,29.29,NNW,332,10.5,10.5,32,0.00,,CLR,0.00,VWS V14.01,2013-11-09 21:55:00,
2013-11-09 15:56:00,63.7,33.3,29.29,NW,314,15.4,15.4,32,0.00,,CLR,0.00,VWS V14.01,2013-11-09 21:56:00,
2013-11-09 15:59:00,63.5,33.1,29.29,NW,313,12.3,13.6,32,0.00,,CLR,0.00,VWS V14.01,2013-11-09 21:59:00,
2013-11-09 16:00:00,63.5,33.1,29.29,NNW,328,10.1,10.5,32,0.00,,CLR,0.00,VWS V14.01,2013-11-09 22:00:00,
2013-11-09 16:01:00,63.5,33.1,29.29,NW,315,10.1,10.5,32,0.00,,CLR,0.00,VWS V14.01,2013-11-09 22:01:00,
2013-11-09 16:02:00,63.3,33.0,29.29,NW,326,10.5,15.0,32,0.00,,CLR,0.00,VWS V14.01,2013-11-09 22:02:00,
2013-11-09 16:04:00,63.1,32.8,29.29,NW,320,12.8,14.1,32,0.00,,CLR,0.00,VWS V14.01,2013-11-09 22:04:00,
2013-11-09 16:06:00,63.1,32.8,29.29,NW,308,9.6,13.6,32,0.00,,CLR,0.00,VWS V14.01,2013-11-09 22:06:00,
2013-11-09 16:07:00,63.1,32.8,29.29,NW,324,10.5,10.5,32,0.00,,CLR,0.00,VWS V14.01,2013-11-09 22:07:00,
2013-11-09 16:08:00,63.0,32.7,29.29,NW,315,11.0,11.0,32,0.00,,CLR,0.00,VWS V14.01,2013-11-09 22:08:00,
2013-11-09 16:10:00,62.8,32.5,29.29,NW,313,11.9,15.4,32,0.00,,CLR,0.00,VWS V14.01,2013-11-09 22:10:00,
2013-11-09 16:11:00,62.8,32.5,29.29,NW,322,10.5,11.0,32,0.00,,CLR,0.00,VWS V14.01,2013-11-09 22:11:00,
2013-11-09 16:12:00,62.8,32.5,29.29,NNW,330,12.8,12.8,32,0.00,,CLR,0.00,VWS V14.01,2013-11-09 22:12:00,
2013-11-09 16:13:00,62.8,32.5,29.29,NW,319,8.3,11.0,32,0.00,,CLR,0.00,VWS V14.01,2013-11-09 22:13:00,
2013-11-09 16:15:00,62.6,32.3,29.29,NNW,327,8.3,11.0,32,0.00,,CLR,0.00,VWS V14.01,2013-11-09 22:15:00,
2013-11-09 16:16:00,62.4,32.2,29.29,NW,320,12.8,12.8,32,0.00,,CLR,0.00,VWS V14.01,2013-11-09 22:16:00,
2013-11-09 16:17:00,62.4,32.2,29.29,NW,320,12.8,12.8,32,0.00,,CLR,0.00,VWS V14.01,2013-11-09 22:17:00,
2013-11-09 16:18:00,62.4,32.2,29.29,NW,315,8.3,12.3,32,0.00,,CLR,0.00,VWS V14.01,2013-11-09 22:18:00,
2013-11-09 16:21:00,62.2,32.0,29.29,NW,313,7.6,7.6,32,0.00,,CLR,0.00,VWS V14.01,2013-11-09 22:21:00,
2013-11-09 16:22:00,61.9,31.7,29.29,NW,311,5.8,6.3,32,0.00,,CLR,0.00,VWS V14.01,2013-11-09 22:22:00,
2013-11-09 16:23:00,61.7,31.6,29.29,NW,319,11.0,11.4,32,0.00,,CLR,0.00,VWS V14.01,2013-11-09 22:23:00,
2013-11-09 16:24:00,61.5,31.4,29.29,WNW,301,8.3,12.8,32,0.00,,CLR,0.00,VWS V14.01,2013-11-09 22:24:00,
2013-11-09 16:26:00,61.7,31.6,29.29,NW,311,8.1,8.1,32,0.00,,CLR,0.00,VWS V14.01,2013-11-09 22:26:00,
2013-11-09 16:28:00,61.5,31.4,29.29,NW,323,7.2,7.6,32,0.00,,CLR,0.00,VWS V14.01,2013-11-09 22:28:00,
2013-11-09 16:29:00,61.5,31.4,29.29,NW,320,6.3,6.3,32,0.00,,CLR,0.00,VWS V14.01,2013-11-09 22:29:00,
2013-11-09 16:30:00,61.3,31.2,29.29,NW,316,5.8,6.3,32,0.00,,CLR,0.00,VWS V14.01,2013-11-09 22:30:00,
2013-11-09 16:32:00,61.0,30.9,29.29,NW,316,5.8,6.3,32,0.00,,CLR,0.00,VWS V14.01,2013-11-09 22:32:00,
2013-11-09 16:33:00,60.6,32.1,29.29,NNW,337,6.3,7.6,34,0.00,,CLR,0.00,VWS V14.01,2013-11-09 22:33:00,
2013-11-09 16:34:00,60.4,32.0,29.29,NW,317,6.3,8.1,34,0.00,,CLR,0.00,VWS V14.01,2013-11-09 22:34:00,
2013-11-09 16:35:00,60.4,32.0,29.29,NW,316,6.3,6.3,34,0.00,,CLR,0.00,VWS V14.01,2013-11-09 22:35:00,
2013-11-09 16:37:00,60.3,31.8,29.29,NW,322,5.8,6.7,34,0.00,,CLR,0.00,VWS V14.01,2013-11-09 22:37:00,
2013-11-09 16:38:00,60.1,31.6,29.29,NW,312,7.6,7.6,34,0.00,,CLR,0.00,VWS V14.01,2013-11-09 22:38:00,
2013-11-09 16:40:00,59.7,31.3,29.29,NW,321,8.1,8.1,34,0.00,,CLR,0.00,VWS V14.01,2013-11-09 22:40:00,
2013-11-09 16:42:00,59.7,31.3,29.29,NW,322,5.8,5.8,34,0.00,,CLR,0.00,VWS V14.01,2013-11-09 22:42:00,
2013-11-09 16:43:00,59.7,31.3,29.29,NW,319,5.4,5.8,34,0.00,,CLR,0.00,VWS V14.01,2013-11-09 22:43:00,
2013-11-09 16:44:00,59.4,31.0,29.29,NNW,327,6.3,7.6,34,0.00,,CLR,0.00,VWS V14.01,2013-11-09 22:44:00,
2013-11-09 16:45:00,59.4,31.0,29.29,WNW,301,7.2,7.2,34,0.00,,CLR,0.00,VWS V14.01,2013-11-09 22:45:00,
2013-11-09 16:48:00,58.8,30.5,29.29,NW,325,6.3,6.3,34,0.00,,CLR,0.00,VWS V14.01,2013-11-09 22:48:00,
2013-11-09 16:49:00,58.5,30.2,29.29,NW,321,5.4,6.3,34,0.00,,CLR,0.00,VWS V14.01,2013-11-09 22:49:00,
2013-11-09 16:50:00,58.5,30.2,29.29,NW,316,6.3,8.1,34,0.00,,CLR,0.00,VWS V14.01,2013-11-09 22:50:00,
2013-11-09 16:51:00,58.3,30.1,29.29,NW,324,6.7,6.7,34,0.00,,CLR,0.00,VWS V14.01,2013-11-09 22:51:00,
2013-11-09 16:53:00,57.9,29.7,29.29,NW,314,5.4,5.8,34,0.00,,CLR,0.00,VWS V14.01,2013-11-09 22:53:00,
2013-11-09 16:54:00,57.7,29.6,29.29,NW,315,5.4,6.3,34,0.00,,CLR,0.00,VWS V14.01,2013-11-09 22:54:00,
2013-11-09 16:55:00,57.6,29.4,29.29,NW,326,3.1,5.8,34,0.00,,CLR,0.00,VWS V14.01,2013-11-09 22:55:00,
2013-11-09 16:56:00,57.4,29.3,29.29,NW,305,4.9,5.4,34,0.00,,CLR,0.00,VWS V14.01,2013-11-09 22:56:00,
2013-11-09 16:57:00,57.2,29.1,29.29,NW,314,6.3,6.3,34,0.00,,CLR,0.00,VWS V14.01,2013-11-09 22:57:00,
2013-11-09 16:58:00,57.2,29.1,29.29,NW,321,5.4,5.4,34,0.00,,CLR,0.00,VWS V14.01,2013-11-09 22:58:00,
2013-11-09 17:01:00,56.8,28.8,29.29,NW,318,4.0,4.0,34,0.00,,CLR,0.00,VWS V14.01,2013-11-09 23:01:00,
2013-11-09 17:02:00,56.7,28.6,29.29,NW,318,4.0,4.5,34,0.00,,CLR,0.00,VWS V14.01,2013-11-09 23:02:00,
2013-11-09 17:04:00,56.7,28.6,29.29,WNW,296,3.1,3.6,34,0.00,,CLR,0.00,VWS V14.01,2013-11-09 23:04:00,
2013-11-09 17:06:00,56.3,28.3,29.29,West,281,3.1,3.1,34,0.00,,CLR,0.00,VWS V14.01,2013-11-09 23:06:00,
2013-11-09 17:07:00,56.3,28.3,29.29,West,281,2.7,3.6,34,0.00,,CLR,0.00,VWS V14.01,2013-11-09 23:07:00,
2013-11-09 17:08:00,56.1,28.1,29.29,West,273,3.6,3.6,34,0.00,,CLR,0.00,VWS V14.01,2013-11-09 23:08:00,
2013-11-09 17:11:00,55.6,27.7,29.29,West,273,3.6,3.6,34,0.00,,CLR,0.00,VWS V14.01,2013-11-09 23:11:00,
2013-11-09 17:12:00,55.6,27.7,29.29,West,273,0.0,2.7,34,0.00,,CLR,0.00,VWS V14.01,2013-11-09 23:12:00,
2013-11-09 17:13:00,55.4,27.5,29.29,West,273,0.0,0.0,34,0.00,,CLR,0.00,VWS V14.01,2013-11-09 23:13:00,
2013-11-09 17:14:00,55.4,27.5,29.29,West,279,0.0,0.0,34,0.00,,CLR,0.00,VWS V14.01,2013-11-09 23:14:00,
2013-11-09 17:16:00,55.4,27.5,29.29,WNW,293,3.1,3.1,34,0.00,,CLR,0.00,VWS V14.01,2013-11-09 23:16:00,
2013-11-09 17:17:00,55.6,27.7,29.29,WNW,293,2.7,3.1,34,0.00,,CLR,0.00,VWS V14.01,2013-11-09 23:17:00,
2013-11-09 17:19:00,55.4,27.5,29.29,WNW,293,2.7,2.7,34,0.00,,CLR,0.00,VWS V14.01,2013-11-09 23:19:00,
2013-11-09 17:20:00,55.4,27.5,29.29,WNW,293,0.0,0.0,34,0.00,,CLR,0.00,VWS V14.01,2013-11-09 23:20:00,
2013-11-09 17:22:00,55.4,27.5,29.29,WNW,293,0.0,0.0,34,0.00,,CLR,0.00,VWS V14.01,2013-11-09 23:22:00,
2013-11-09 17:23:00,55.4,27.5,29.29,WNW,293,0.0,0.0,34,0.00,,CLR,0.00,VWS V14.01,2013-11-09 23:23:00,
2013-11-09 17:24:00,55.4,27.5,29.32,WNW,293,0.0,0.0,34,0.00,,CLR,0.00,VWS V14.01,2013-11-09 23:24:00,
2013-11-09 17:25:00,55.4,27.5,29.32,WNW,293,0.0,0.0,34,0.00,,CLR,0.00,VWS V14.01,2013-11-09 23:25:00,
2013-11-09 17:26:00,55.4,27.5,29.32,WNW,293,0.0,0.0,34,0.00,,CLR,0.00,VWS V14.01,2013-11-09 23:26:00,
2013-11-09 17:27:00,55.4,27.5,29.32,WNW,293,0.0,0.0,34,0.00,,CLR,0.00,VWS V14.01,2013-11-09 23:27:00,
2013-11-09 17:28:00,55.2,28.8,29.32,WNW,293,0.0,0.0,36,0.00,,CLR,0.00,VWS V14.01,2013-11-09 23:28:00,
2013-11-09 17:29:00,55.2,28.8,29.32,WNW,293,0.0,0.0,36,0.00,,CLR,0.00,VWS V14.01,2013-11-09 23:29:00,
2013-11-09 17:32:00,55.2,28.8,29.32,WNW,293,0.0,0.0,36,0.00,,CLR,0.00,VWS V14.01,2013-11-09 23:32:00,
2013-11-09 17:33:00,55.2,28.8,29.32,WNW,293,0.0,0.0,36,0.00,,CLR,0.00,VWS V14.01,2013-11-09 23:33:00,
2013-11-09 17:34:00,55.0,28.6,29.32,WNW,293,0.0,0.0,36,0.00,,CLR,0.00,VWS V14.01,2013-11-09 23:34:00,
2013-11-09 17:37:00,54.9,28.4,29.32,WNW,293,0.0,0.0,36,0.00,,CLR,0.00,VWS V14.01,2013-11-09 23:37:00,
2013-11-09 17:38:00,54.9,28.4,29.32,WNW,293,3.1,3.1,36,0.00,,CLR,0.00,VWS V14.01,2013-11-09 23:38:00,
2013-11-09 17:39:00,54.9,28.4,29.32,WNW,293,2.7,2.7,36,0.00,,CLR,0.00,VWS V14.01,2013-11-09 23:39:00,
2013-11-09 17:41:00,54.9,28.4,29.32,WNW,303,3.6,3.6,36,0.00,,CLR,0.00,VWS V14.01,2013-11-09 23:41:00,
2013-11-09 17:43:00,54.7,28.3,29.32,NW,315,3.6,3.6,36,0.00,,CLR,0.00,VWS V14.01,2013-11-09 23:43:00,
2013-11-09 17:45:00,54.5,28.1,29.32,NNW,330,0.0,3.1,36,0.00,,CLR,0.00,VWS V14.01,2013-11-09 23:45:00,
2013-11-09 17:46:00,54.5,28.1,29.32,NNW,327,0.0,0.0,36,0.00,,CLR,0.00,VWS V14.01,2013-11-09 23:46:00,
2013-11-09 17:47:00,54.5,28.1,29.32,NNW,327,0.0,0.0,36,0.00,,CLR,0.00,VWS V14.01,2013-11-09 23:47:00,
2013-11-09 17:48:00,54.5,28.1,29.32,NW,320,0.0,0.0,36,0.00,,CLR,0.00,VWS V14.01,2013-11-09 23:48:00,
2013-11-09 17:49:00,54.5,28.1,29.32,NW,321,0.0,0.0,36,0.00,,CLR,0.00,VWS V14.01,2013-11-09 23:49:00,
2013-11-09 17:50:00,54.3,28.0,29.32,NW,311,3.1,3.1,36,0.00,,CLR,0.00,VWS V14.01,2013-11-09 23:50:00,
2013-11-09 17:51:00,54.3,28.0,29.32,NW,311,3.1,4.0,36,0.00,,CLR,0.00,VWS V14.01,2013-11-09 23:51:00,
2013-11-09 17:52:00,54.1,27.8,29.32,NW,311,2.7,2.7,36,0.00,,CLR,0.00,VWS V14.01,2013-11-09 23:52:00,
2013-11-09 17:54:00,54.0,27.6,29.32,WNW,287,0.0,0.0,36,0.00,,CLR,0.00,VWS V14.01,2013-11-09 23:54:00,
2013-11-09 17:55:00,53.8,27.5,29.32,WNW,287,0.0,0.0,36,0.00,,CLR,0.00,VWS V14.01,2013-11-09 23:55:00,
2013-11-09 17:56:00,53.6,27.3,29.32,WNW,287,2.7,3.1,36,0.00,,CLR,0.00,VWS V14.01,2013-11-09 23:56:00,
2013-11-09 18:00:00,53.2,27.0,29.32,West,261,3.1,4.0,36,0.00,,CLR,0.00,VWS V14.01,2013-11-10 00:00:00,
2013-11-09 18:01:00,53.2,27.0,29.32,West,263,3.6,4.0,36,0.00,,CLR,0.00,VWS V14.01,2013-11-10 00:01:00,
2013-11-09 18:06:00,53.8,27.5,29.32,West,268,2.7,4.0,36,0.00,,CLR,0.00,VWS V14.01,2013-11-10 00:06:00,
2013-11-09 18:07:00,53.8,27.5,29.32,West,276,2.7,3.1,36,0.00,,CLR,0.00,VWS V14.01,2013-11-10 00:07:00,
2013-11-09 18:08:00,53.8,27.5,29.32,WNW,291,2.7,4.0,36,0.00,,CLR,0.00,VWS V14.01,2013-11-10 00:08:00,
2013-11-09 18:11:00,53.8,27.5,29.35,WNW,295,3.6,4.9,36,0.00,,CLR,0.00,VWS V14.01,2013-11-10 00:11:00,
2013-11-09 18:12:00,53.8,27.5,29.35,WNW,294,2.7,4.0,36,0.00,,CLR,0.00,VWS V14.01,2013-11-10 00:12:00,
2013-11-09 18:13:00,53.8,27.5,29.35,WNW,303,3.1,3.6,36,0.00,,CLR,0.00,VWS V14.01,2013-11-10 00:13:00,
2013-11-09 18:14:00,53.8,27.5,29.35,NW,304,3.1,3.1,36,0.00,,CLR,0.00,VWS V14.01,2013-11-10 00:14:00,
2013-11-09 18:16:00,54.0,27.6,29.35,WNW,289,3.1,3.1,36,0.00,,CLR,0.00,VWS V14.01,2013-11-10 00:16:00,
2013-11-09 18:17:00,54.0,27.6,29.35,WNW,289,3.6,3.6,36,0.00,,CLR,0.00,VWS V14.01,2013-11-10 00:17:00,
2013-11-09 18:18:00,54.0,27.6,29.35,WNW,289,3.1,3.1,36,0.00,,CLR,0.00,VWS V14.01,2013-11-10 00:18:00,
2013-11-09 18:22:00,54.0,27.6,29.35,WNW,286,2.7,3.6,36,0.00,,CLR,0.00,VWS V14.01,2013-11-10 00:22:00,
2013-11-09 18:23:00,54.0,27.6,29.35,WNW,286,2.2,3.1,36,0.00,,CLR,0.00,VWS V14.01,2013-11-10 00:23:00,
2013-11-09 18:24:00,53.8,27.5,29.35,West,271,2.7,4.0,36,0.00,,CLR,0.00,VWS V14.01,2013-11-10 00:24:00,
2013-11-09 18:25:00,53.6,27.3,29.35,West,271,3.1,3.1,36,0.00,,CLR,0.00,VWS V14.01,2013-11-10 00:25:00,
2013-11-09 18:28:00,53.2,27.0,29.35,NW,316,2.7,3.1,36,0.00,,CLR,0.00,VWS V14.01,2013-11-10 00:28:00,
2013-11-09 18:29:00,53.1,26.8,29.35,NW,315,3.1,3.6,36,0.00,,CLR,0.00,VWS V14.01,2013-11-10 00:29:00,
2013-11-09 18:30:00,53.1,26.8,29.35,NW,315,3.1,3.1,36,0.00,,CLR,0.00,VWS V14.01,2013-11-10 00:30:00,
2013-11-09 18:34:00,52.7,26.5,29.35,NW,315,0.0,2.7,36,0.00,,CLR,0.00,VWS V14.01,2013-11-10 00:34:00,
2013-11-09 18:35:00,52.7,26.5,29.35,West,278,3.6,4.0,36,0.00,,CLR,0.00,VWS V14.01,2013-11-10 00:35:00,
2013-11-09 18:36:00,52.7,26.5,29.35,West,278,3.1,3.1,36,0.00,,CLR,0.00,VWS V14.01,2013-11-10 00:36:00,
2013-11-09 18:39:00,52.7,26.5,29.35,West,271,3.6,4.0,36,0.00,,CLR,0.00,VWS V14.01,2013-11-10 00:39:00,
2013-11-09 18:40:00,52.7,26.5,29.35,West,271,3.6,3.6,36,0.00,,CLR,0.00,VWS V14.01,2013-11-10 00:40:00,
2013-11-09 18:41:00,52.7,26.5,29.35,West,272,2.7,3.1,36,0.00,,CLR,0.00,VWS V14.01,2013-11-10 00:41:00,
2013-11-09 18:45:00,52.9,26.7,29.35,WNW,292,3.6,4.0,36,0.00,,CLR,0.00,VWS V14.01,2013-11-10 00:45:00,
2013-11-09 18:46:00,52.9,26.7,29.35,WNW,290,5.8,5.8,36,0.00,,CLR,0.00,VWS V14.01,2013-11-10 00:46:00,
2013-11-09 18:47:00,52.9,26.7,29.35,WNW,290,3.1,4.0,36,0.00,,CLR,0.00,VWS V14.01,2013-11-10 00:47:00,
2013-11-09 18:48:00,52.9,26.7,29.35,WNW,292,3.1,3.6,36,0.00,,CLR,0.00,VWS V14.01,2013-11-10 00:48:00,
2013-11-09 18:50:00,52.9,26.7,29.35,WNW,291,4.0,4.0,36,0.00,,CLR,0.00,VWS V14.01,2013-11-10 00:50:00,
2013-11-09 18:52:00,52.9,26.7,29.35,West,279,4.0,4.0,36,0.00,,CLR,0.00,VWS V14.01,2013-11-10 00:52:00,
2013-11-09 18:54:00,52.7,26.5,29.35,West,276,3.1,4.0,36,0.00,,CLR,0.00,VWS V14.01,2013-11-10 00:54:00,
2013-11-09 18:55:00,52.7,26.5,29.35,West,276,4.0,4.0,36,0.00,,CLR,0.00,VWS V14.01,2013-11-10 00:55:00,
2013-11-09 18:56:00,52.7,26.5,29.35,WSW,249,3.6,4.0,36,0.00,,CLR,0.00,VWS V14.01,2013-11-10 00:56:00,
2013-11-09 18:57:00,52.5,26.4,29.35,West,267,0.0,3.1,36,0.00,,CLR,0.00,VWS V14.01,2013-11-10 00:57:00,
2013-11-09 18:59:00,52.3,26.2,29.35,West,271,3.1,3.6,36,0.00,,CLR,0.00,VWS V14.01,2013-11-10 00:59:00,
2013-11-09 19:01:00,52.2,26.0,29.35,West,281,0.0,3.1,36,0.00,,CLR,0.00,VWS V14.01,2013-11-10 01:01:00,
2013-11-09 19:02:00,52.0,25.9,29.35,West,281,2.7,3.6,36,0.00,,CLR,0.00,VWS V14.01,2013-11-10 01:02:00,
2013-11-09 19:04:00,52.0,25.9,29.35,West,281,3.1,3.1,36,0.00,,CLR,0.00,VWS V14.01,2013-11-10 01:04:00,
2013-11-09 19:05:00,51.8,25.7,29.35,WNW,287,5.8,5.8,36,0.00,,CLR,0.00,VWS V14.01,2013-11-10 01:05:00,
2013-11-09 19:07:00,52.0,25.9,29.35,West,262,3.6,3.6,36,0.00,,CLR,0.00,VWS V14.01,2013-11-10 01:07:00,
2013-11-09 19:08:00,52.0,25.9,29.35,West,274,4.0,4.0,36,0.00,,CLR,0.00,VWS V14.01,2013-11-10 01:08:00,
2013-11-09 19:09:00,52.0,25.9,29.35,West,276,3.1,4.0,36,0.00,,CLR,0.00,VWS V14.01,2013-11-10 01:09:00,
2013-11-09 19:10:00,52.0,25.9,29.38,West,276,3.1,3.1,36,0.00,,CLR,0.00,VWS V14.01,2013-11-10 01:10:00,
2013-11-09 19:13:00,52.0,25.9,29.38,WNW,282,0.0,0.0,36,0.00,,CLR,0.00,VWS V14.01,2013-11-10 01:13:00,
2013-11-09 19:14:00,52.0,25.9,29.38,WNW,290,3.1,3.1,36,0.00,,CLR,0.00,VWS V14.01,2013-11-10 01:14:00,
2013-11-09 19:15:00,52.0,25.9,29.38,WNW,291,2.7,2.7,36,0.00,,CLR,0.00,VWS V14.01,2013-11-10 01:15:00,
2013-11-09 19:16:00,51.8,25.7,29.38,WNW,291,3.1,3.1,36,0.00,,CLR,0.00,VWS V14.01,2013-11-10 01:16:00,
2013-11-09 19:18:00,51.8,25.7,29.38,WNW,283,3.1,3.6,36,0.00,,CLR,0.00,VWS V14.01,2013-11-10 01:18:00,
2013-11-09 19:19:00,52.0,25.9,29.38,West,275,3.6,3.6,36,0.00,,CLR,0.00,VWS V14.01,2013-11-10 01:19:00,
2013-11-09 19:20:00,52.0,25.9,29.38,West,275,2.7,3.1,36,0.00,,CLR,0.00,VWS V14.01,2013-11-10 01:20:00,
2013-11-09 19:21:00,52.0,25.9,29.38,WNW,288,3.1,3.1,36,0.00,,CLR,0.00,VWS V14.01,2013-11-10 01:21:00,
2013-11-09 19:22:00,51.8,25.7,29.38,West,274,2.7,4.0,36,0.00,,CLR,0.00,VWS V14.01,2013-11-10 01:22:00,
2013-11-09 19:23:00,51.8,25.7,29.38,WSW,258,5.4,5.4,36,0.00,,CLR,0.00,VWS V14.01,2013-11-10 01:23:00,
2013-11-09 19:24:00,51.8,25.7,29.38,West,274,2.7,5.4,36,0.00,,CLR,0.00,VWS V14.01,2013-11-10 01:24:00,
2013-11-09 19:25:00,51.8,25.7,29.38,West,275,3.1,3.1,36,0.00,,CLR,0.00,VWS V14.01,2013-11-10 01:25:00,
2013-11-09 19:26:00,51.6,26.9,29.38,WNW,285,3.1,3.1,38,0.00,,CLR,0.00,VWS V14.01,2013-11-10 01:26:00,
2013-11-09 19:27:00,51.6,26.9,29.38,WNW,289,3.1,4.0,38,0.00,,CLR,0.00,VWS V14.01,2013-11-10 01:27:00,
2013-11-09 19:28:00,51.6,26.9,29.38,WNW,289,2.7,3.1,38,0.00,,CLR,0.00,VWS V14.01,2013-11-10 01:28:00,
2013-11-09 19:29:00,51.6,26.9,29.38,WNW,289,2.2,2.7,38,0.00,,CLR,0.00,VWS V14.01,2013-11-10 01:29:00,
2013-11-09 19:30:00,51.6,26.9,29.38,WSW,252,2.7,2.7,38,0.00,,CLR,0.00,VWS V14.01,2013-11-10 01:30:00,
2013-11-09 19:31:00,51.4,26.7,29.38,WSW,252,3.1,3.1,38,0.00,,CLR,0.00,VWS V14.01,2013-11-10 01:31:00,
2013-11-09 19:32:00,51.4,26.7,29.38,West,271,3.1,3.6,38,0.00,,CLR,0.00,VWS V14.01,2013-11-10 01:32:00,
2013-11-09 19:34:00,51.3,26.5,29.38,West,271,2.7,2.7,38,0.00,,CLR,0.00,VWS V14.01,2013-11-10 01:34:00,
2013-11-09 19:35:00,51.3,26.5,29.38,WNW,284,3.1,3.1,38,0.00,,CLR,0.00,VWS V14.01,2013-11-10 01:35:00,
2013-11-09 19:36:00,51.1,26.4,29.38,WNW,286,3.6,4.0,38,0.00,,CLR,0.00,VWS V14.01,2013-11-10 01:36:00,
2013-11-09 19:38:00,51.1,26.4,29.38,WNW,283,2.7,3.1,38,0.00,,CLR,0.00,VWS V14.01,2013-11-10 01:38:00,
2013-11-09 19:39:00,50.9,26.2,29.38,WNW,285,2.7,3.1,38,0.00,,CLR,0.00,VWS V14.01,2013-11-10 01:39:00,
2013-11-09 19:40:00,50.9,26.2,29.38,West,272,2.7,3.1,38,0.00,,CLR,0.00,VWS V14.01,2013-11-10 01:40:00,
2013-11-09 19:42:00,50.7,26.0,29.38,West,272,2.2,4.0,38,0.00,,CLR,0.00,VWS V14.01,2013-11-10 01:42:00,
2013-11-09 19:44:00,50.4,25.7,29.38,West,272,3.1,3.1,38,0.00,,CLR,0.00,VWS V14.01,2013-11-10 01:44:00,
2013-11-09 19:45:00,50.4,25.7,29.38,West,272,3.1,3.1,38,0.00,,CLR,0.00,VWS V14.01,2013-11-10 01:45:00,
2013-11-09 19:48:00,50.2,25.6,29.38,WNW,292,3.6,3.6,38,0.00,,CLR,0.00,VWS V14.01,2013-11-10 01:48:00,
2013-11-09 19:50:00,50.4,25.7,29.38,WNW,293,3.6,3.6,38,0.00,,CLR,0.00,VWS V14.01,2013-11-10 01:50:00,
2013-11-09 19:51:00,50.5,25.9,29.38,WNW,293,0.0,3.6,38,0.00,,CLR,0.00,VWS V14.01,2013-11-10 01:51:00,
2013-11-09 19:54:00,50.5,25.9,29.38,WNW,292,3.1,4.0,38,0.00,,CLR,0.00,VWS V14.01,2013-11-10 01:54:00,
2013-11-09 19:55:00,50.5,25.9,29.38,West,270,4.0,4.0,38,0.00,,CLR,0.00,VWS V14.01,2013-11-10 01:55:00,
2013-11-09 19:56:00,50.5,25.9,29.38,WSW,258,3.1,3.6,38,0.00,,CLR,0.00,VWS V14.01,2013-11-10 01:56:00,
2013-11-09 19:57:00,50.4,25.7,29.38,WSW,258,2.7,3.1,38,0.00,,CLR,0.00,VWS V14.01,2013-11-10 01:57:00,
2013-11-09 20:00:00,50.2,25.6,29.38,West,266,2.7,4.9,38,0.00,,CLR,0.00,VWS V14.01,2013-11-10 02:00:00,
2013-11-09 20:01:00,50.2,25.6,29.38,West,267,3.1,3.1,38,0.00,,CLR,0.00,VWS V14.01,2013-11-10 02:01:00,
2013-11-09 20:02:00,50.2,25.6,29.38,West,269,3.6,3.6,38,0.00,,CLR,0.00,VWS V14.01,2013-11-10 02:02:00,
2013-11-09 20:03:00,50.2,25.6,29.38,West,271,3.1,3.6,38,0.00,,CLR,0.00,VWS V14.01,2013-11-10 02:03:00,
2013-11-09 20:05:00,50.2,25.6,29.38,West,273,0.0,3.1,38,0.00,,CLR,0.00,VWS V14.01,2013-11-10 02:05:00,
2013-11-09 20:06:00,50.2,25.6,29.38,West,274,3.6,3.6,38,0.00,,CLR,0.00,VWS V14.01,2013-11-10 02:06:00,
2013-11-09 20:07:00,50.2,25.6,29.38,West,274,3.1,4.0,38,0.00,,CLR,0.00,VWS V14.01,2013-11-10 02:07:00,
2013-11-09 20:09:00,50.2,25.6,29.38,West,276,3.1,3.6,38,0.00,,CLR,0.00,VWS V14.01,2013-11-10 02:09:00,
2013-11-09 20:10:00,50.2,25.6,29.38,WNW,302,0.0,5.4,38,0.00,,CLR,0.00,VWS V14.01,2013-11-10 02:10:00,
2013-11-09 20:11:00,50.2,25.6,29.38,WNW,302,3.1,3.1,38,0.00,,CLR,0.00,VWS V14.01,2013-11-10 02:11:00,
2013-11-09 20:12:00,50.4,25.7,29.38,West,277,4.0,4.5,38,0.00,,CLR,0.00,VWS V14.01,2013-11-10 02:12:00,
2013-11-09 20:14:00,50.4,25.7,29.38,West,277,0.0,2.7,38,0.00,,CLR,0.00,VWS V14.01,2013-11-10 02:14:00,
2013-11-09 20:15:00,50.4,25.7,29.38,West,277,0.0,0.0,38,0.00,,CLR,0.00,VWS V14.01,2013-11-10 02:15:00,
2013-11-09 20:16:00,50.4,25.7,29.38,West,277,0.0,0.0,38,0.00,,CLR,0.00,VWS V14.01,2013-11-10 02:16:00,
2013-11-09 20:17:00,50.2,25.6,29.38,West,277,3.6,3.6,38,0.00,,CLR,0.00,VWS V14.01,2013-11-10 02:17:00,
2013-11-09 20:20:00,50.2,25.6,29.38,West,277,4.0,4.0,38,0.00,,CLR,0.00,VWS V14.01,2013-11-10 02:20:00,
2013-11-09 20:21:00,50.2,25.6,29.38,West,277,0.0,2.7,38,0.00,,CLR,0.00,VWS V14.01,2013-11-10 02:21:00,
2013-11-09 20:23:00,49.8,25.2,29.38,West,264,2.7,3.1,38,0.00,,CLR,0.00,VWS V14.01,2013-11-10 02:23:00,
2013-11-09 20:25:00,49.8,25.2,29.38,West,266,4.5,4.5,38,0.00,,CLR,0.00,VWS V14.01,2013-11-10 02:25:00,
2013-11-09 20:26:00,49.6,25.1,29.38,WNW,287,3.1,3.6,38,0.00,,CLR,0.00,VWS V14.01,2013-11-10 02:26:00,
2013-11-09 20:29:00,49.6,25.1,29.38,WNW,303,2.2,4.0,38,0.00,,CLR,0.00,VWS V14.01,2013-11-10 02:29:00,
2013-11-09 20:30:00,49.6,25.1,29.38,WNW,303,0.0,0.0,38,0.00,,CLR,0.00,VWS V14.01,2013-11-10 02:30:00,
2013-11-09 20:31:00,49.5,24.9,29.38,NW,314,0.0,0.0,38,0.00,,CLR,0.00,VWS V14.01,2013-11-10 02:31:00,
2013-11-09 20:32:00,49.6,25.1,29.38,WNW,282,3.1,3.1,38,0.00,,CLR,0.00,VWS V14.01,2013-11-10 02:32:00,
2013-11-09 20:35:00,49.6,25.1,29.38,NW,305,3.6,3.6,38,0.00,,CLR,0.00,VWS V14.01,2013-11-10 02:35:00,
2013-11-09 20:37:00,49.8,25.2,29.38,West,275,3.1,3.1,38,0.00,,CLR,0.00,VWS V14.01,2013-11-10 02:37:00,
2013-11-09 20:38:00,49.8,25.2,29.38,WNW,298,0.0,4.0,38,0.00,,CLR,0.04,VWS V14.01,2013-11-10 02:38:00,
2013-11-09 20:40:00,49.8,25.2,29.41,WNW,295,2.7,3.6,38,0.00,,CLR,0.00,VWS V14.01,2013-11-10 02:40:00,
2013-11-09 20:42:00,49.8,25.2,29.41,WNW,296,2.7,4.0,38,0.00,,CLR,0.00,VWS V14.01,2013-11-10 02:42:00,
2013-11-09 20:43:00,49.8,25.2,29.41,WNW,295,2.7,2.7,38,0.00,,CLR,0.00,VWS V14.01,2013-11-10 02:43:00,
2013-11-09 20:44:00,49.6,25.1,29.41,WNW,295,3.6,3.6,38,0.00,,CLR,0.00,VWS V14.01,2013-11-10 02:44:00,
2013-11-09 20:45:00,49.5,24.9,29.41,WNW,295,2.2,3.1,38,0.00,,CLR,0.00,VWS V14.01,2013-11-10 02:45:00,
2013-11-09 20:47:00,49.3,24.8,29.41,WNW,284,3.1,3.6,38,0.00,,CLR,0.00,VWS V14.01,2013-11-10 02:47:00,
2013-11-09 20:49:00,49.1,24.6,29.41,WNW,301,5.4,5.4,38,0.00,,CLR,0.00,VWS V14.01,2013-11-10 02:49:00,
2013-11-09 20:51:00,49.1,24.6,29.41,West,271,3.1,3.6,38,0.00,,CLR,0.00,VWS V14.01,2013-11-10 02:51:00,
2013-11-09 20:53:00,49.1,24.6,29.41,WNW,295,4.0,4.9,38,0.00,,CLR,0.00,VWS V14.01,2013-11-10 02:53:00,
2013-11-09 20:54:00,49.3,24.8,29.41,WNW,285,3.1,4.0,38,0.00,,CLR,0.00,VWS V14.01,2013-11-10 02:54:00,
2013-11-09 20:55:00,49.3,24.8,29.41,NW,313,3.1,3.1,38,0.00,,CLR,0.00,VWS V14.01,2013-11-10 02:55:00,
2013-11-09 20:56:00,49.3,24.8,29.41,WNW,289,2.7,3.6,38,0.00,,CLR,0.00,VWS V14.01,2013-11-10 02:56:00,
2013-11-09 20:58:00,49.5,24.9,29.41,West,281,3.6,3.6,38,0.00,,CLR,0.00,VWS V14.01,2013-11-10 02:58:00,
2013-11-09 21:00:00,49.5,24.9,29.41,NW,308,3.6,4.0,38,0.00,,CLR,0.00,VWS V14.01,2013-11-10 03:00:00,
2013-11-09 21:01:00,49.5,24.9,29.41,West,280,4.9,4.9,38,0.00,,CLR,0.00,VWS V14.01,2013-11-10 03:01:00,
2013-11-09 21:03:00,49.6,25.1,29.41,WNW,285,2.2,4.0,38,0.00,,CLR,0.00,VWS V14.01,2013-11-10 03:03:00,
2013-11-09 21:04:00,49.6,25.1,29.41,WNW,285,2.2,2.2,38,0.00,,CLR,0.00,VWS V14.01,2013-11-10 03:04:00,
2013-11-09 21:05:00,49.5,24.9,29.41,WNW,301,3.6,4.9,38,0.00,,CLR,0.00,VWS V14.01,2013-11-10 03:05:00,
2013-11-09 21:06:00,49.5,24.9,29.41,WNW,300,3.1,5.4,38,0.00,,CLR,0.00,VWS V14.01,2013-11-10 03:06:00,
2013-11-09 21:07:00,49.5,24.9,29.41,WNW,300,4.0,4.0,38,0.00,,CLR,0.00,VWS V14.01,2013-11-10 03:07:00,
2013-11-09 21:09:00,49.3,24.8,29.41,WNW,299,4.0,4.0,38,0.00,,CLR,0.00,VWS V14.01,2013-11-10 03:09:00,
2013-11-09 21:10:00,49.3,24.8,29.41,WNW,289,4.0,5.4,38,0.00,,CLR,0.00,VWS V14.01,2013-11-10 03:10:00,
2013-11-09 21:12:00,49.5,24.9,29.41,WNW,301,4.9,4.9,38,0.00,,CLR,0.00,VWS V14.01,2013-11-10 03:12:00,
2013-11-09 21:14:00,49.3,24.8,29.41,WNW,289,3.6,5.8,38,0.00,,CLR,0.00,VWS V14.01,2013-11-10 03:14:00,
2013-11-09 21:15:00,49.3,24.8,29.41,WNW,289,4.0,4.9,38,0.00,,CLR,0.00,VWS V14.01,2013-11-10 03:15:00,
2013-11-09 21:18:00,49.3,24.8,29.41,WNW,299,3.6,3.6,38,0.00,,CLR,0.00,VWS V14.01,2013-11-10 03:18:00,
2013-11-09 21:19:00,49.3,24.8,29.41,WNW,292,3.6,5.8,38,0.00,,CLR,0.00,VWS V14.01,2013-11-10 03:19:00,
2013-11-09 21:20:00,49.3,24.8,29.41,WNW,285,3.6,6.3,38,0.00,,CLR,0.00,VWS V14.01,2013-11-10 03:20:00,
2013-11-09 21:21:00,49.1,24.6,29.41,WNW,301,3.1,5.4,38,0.00,,CLR,0.00,VWS V14.01,2013-11-10 03:21:00,
2013-11-09 21:23:00,49.1,24.6,29.41,WNW,301,2.7,3.1,38,0.00,,CLR,0.00,VWS V14.01,2013-11-10 03:23:00,
2013-11-09 21:25:00,49.1,24.6,29.41,WNW,303,3.1,3.1,38,0.00,,CLR,0.00,VWS V14.01,2013-11-10 03:25:00,
2013-11-09 21:27:00,48.9,24.5,29.41,WNW,300,3.6,3.6,38,0.00,,CLR,0.00,VWS V14.01,2013-11-10 03:27:00,
2013-11-09 21:29:00,49.1,24.6,29.41,WNW,302,2.7,3.6,38,0.00,,CLR,0.00,VWS V14.01,2013-11-10 03:29:00,
2013-11-09 21:31:00,49.1,24.6,29.41,NW,305,2.7,4.9,38,0.00,,CLR,0.00,VWS V14.01,2013-11-10 03:31:00,
2013-11-09 21:32:00,49.1,24.6,29.41,NW,304,2.7,3.1,38,0.00,,CLR,0.00,VWS V14.01,2013-11-10 03:32:00,
2013-11-09 21:33:00,49.1,24.6,29.41,WNW,290,3.1,3.6,38,0.00,,CLR,0.00,VWS V14.01,2013-11-10 03:33:00,
2013-11-09 21:35:00,48.7,24.3,29.41,WNW,290,4.9,5.8,38,0.00,,CLR,0.00,VWS V14.01,2013-11-10 03:35:00,
2013-11-09 21:37:00,48.7,24.3,29.41,NW,324,4.0,4.9,38,0.00,,CLR,0.00,VWS V14.01,2013-11-10 03:37:00,
2013-11-09 21:38:00,48.7,24.3,29.41,NW,317,4.9,6.3,38,0.00,,CLR,0.00,VWS V14.01,2013-11-10 03:38:00,
2013-11-09 21:39:00,48.7,24.3,29.44,NW,318,4.0,4.9,38,0.00,,CLR,0.00,VWS V14.01,2013-11-10 03:39:00,
2013-11-09 21:40:00,48.7,24.3,29.44,NW,307,3.6,6.3,38,0.00,,CLR,0.00,VWS V14.01,2013-11-10 03:40:00,
2013-11-09 21:42:00,48.7,24.3,29.44,NW,317,3.6,4.0,38,0.00,,CLR,0.00,VWS V14.01,2013-11-10 03:42:00,
2013-11-09 21:44:00,48.7,24.3,29.44,WNW,301,0.0,3.1,38,0.00,,CLR,0.00,VWS V14.01,2013-11-10 03:44:00,
2013-11-09 21:45:00,48.7,24.3,29.44,NW,305,3.6,4.0,38,0.00,,CLR,0.00,VWS V14.01,2013-11-10 03:45:00,
2013-11-09 21:46:00,48.6,24.1,29.44,NW,320,4.0,5.4,38,0.00,,CLR,0.00,VWS V14.01,2013-11-10 03:46:00,
2013-11-09 21:47:00,48.6,24.1,29.44,NW,321,4.0,4.0,38,0.00,,CLR,0.00,VWS V14.01,2013-11-10 03:47:00,
2013-11-09 21:49:00,48.6,24.1,29.44,NW,305,4.0,4.0,38,0.00,,CLR,0.00,VWS V14.01,2013-11-10 03:49:00,
2013-11-09 21:50:00,48.4,24.0,29.44,WNW,300,4.9,4.9,38,0.00,,CLR,0.00,VWS V14.01,2013-11-10 03:50:00,
2013-11-09 21:52:00,48.2,23.8,29.44,NW,313,4.9,5.8,38,0.00,,CLR,0.00,VWS V14.01,2013-11-10 03:52:00,
2013-11-09 21:53:00,48.2,23.8,29.44,NW,310,4.0,5.8,38,0.00,,CLR,0.00,VWS V14.01,2013-11-10 03:53:00,
2013-11-09 21:55:00,48.2,23.8,29.44,NW,310,3.1,4.0,38,0.00,,CLR,0.00,VWS V14.01,2013-11-10 03:55:00,
2013-11-09 21:57:00,47.8,23.5,29.44,WNW,290,4.0,5.4,38,0.00,,CLR,0.00,VWS V14.01,2013-11-10 03:57:00,
2013-11-09 21:58:00,47.8,23.5,29.44,NW,305,4.9,5.4,38,0.00,,CLR,0.00,VWS V14.01,2013-11-10 03:58:00,
2013-11-09 21:59:00,47.7,23.3,29.44,WNW,302,5.4,6.3,38,0.00,,CLR,0.00,VWS V14.01,2013-11-10 03:59:00,
2013-11-09 22:02:00,47.7,23.3,29.44,NW,319,5.4,5.4,38,0.00,,CLR,0.00,VWS V14.01,2013-11-10 04:02:00,
2013-11-09 22:04:00,47.8,23.5,29.44,NW,309,5.8,5.8,38,0.00,,CLR,0.00,VWS V14.01,2013-11-10 04:04:00,
2013-11-09 22:05:00,47.8,23.5,29.44,WNW,289,6.7,6.7,38,0.00,,CLR,0.00,VWS V14.01,2013-11-10 04:05:00,
2013-11-09 22:07:00,48.0,23.6,29.44,NW,314,4.0,5.8,38,0.00,,CLR,0.00,VWS V14.01,2013-11-10 04:07:00,
2013-11-09 22:09:00,48.0,23.6,29.44,NW,307,4.0,5.8,38,0.00,,CLR,0.00,VWS V14.01,2013-11-10 04:09:00,
2013-11-09 22:11:00,47.8,23.5,29.44,NW,311,5.4,6.3,38,0.00,,CLR,0.00,VWS V14.01,2013-11-10 04:11:00,
2013-11-09 22:13:00,47.8,23.5,29.44,NW,318,5.8,5.8,38,0.00,,CLR,0.00,VWS V14.01,2013-11-10 04:13:00,
2013-11-09 22:15:00,47.7,23.3,29.44,NW,310,5.8,5.8,38,0.00,,CLR,0.00,VWS V14.01,2013-11-10 04:15:00,
2013-11-09 22:16:00,47.7,23.3,29.44,NW,321,5.8,6.3,38,0.00,,CLR,0.00,VWS V14.01,2013-11-10 04:16:00,
2013-11-09 22:17:00,47.7,23.3,29.44,NW,307,5.8,7.6,38,0.00,,CLR,0.00,VWS V14.01,2013-11-10 04:17:00,
2013-11-09 22:18:00,47.7,23.3,29.44,NW,323,5.4,7.2,38,0.00,,CLR,0.00,VWS V14.01,2013-11-10 04:18:00,
2013-11-09 22:20:00,47.7,23.3,29.44,NW,320,6.3,6.3,38,0.00,,CLR,0.00,VWS V14.01,2013-11-10 04:20:00,
2013-11-09 22:21:00,47.7,23.3,29.44,NW,320,6.3,6.3,38,0.00,,CLR,0.00,VWS V14.01,2013-11-10 04:21:00,
2013-11-09 22:22:00,47.5,23.2,29.44,NNW,331,5.8,6.3,38,0.00,,CLR,0.00,VWS V14.01,2013-11-10 04:22:00,
2013-11-09 22:23:00,47.5,23.2,29.44,NNW,331,5.8,5.8,38,0.00,,CLR,0.00,VWS V14.01,2013-11-10 04:23:00,
2013-11-09 22:25:00,47.3,23.0,29.44,NW,318,6.3,6.3,38,0.00,,CLR,0.00,VWS V14.01,2013-11-10 04:25:00,
2013-11-09 22:26:00,47.3,23.0,29.44,NW,325,6.3,6.3,38,0.00,,CLR,0.00,VWS V14.01,2013-11-10 04:26:00,
2013-11-09 22:28:00,47.1,22.8,29.44,NW,319,4.9,5.8,38,0.00,,CLR,0.00,VWS V14.01,2013-11-10 04:28:00,
2013-11-09 22:29:00,47.1,22.8,29.44,NW,308,5.8,5.8,38,0.00,,CLR,0.00,VWS V14.01,2013-11-10 04:29:00,
2013-11-09 22:30:00,46.9,22.7,29.44,NW,315,5.4,5.8,38,0.00,,CLR,0.00,VWS V14.01,2013-11-10 04:30:00,
2013-11-09 22:31:00,46.9,22.7,29.44,NW,316,5.8,5.8,38,0.00,,CLR,0.00,VWS V14.01,2013-11-10 04:31:00,
2013-11-09 22:33:00,46.8,22.5,29.44,NW,315,6.3,7.6,38,0.00,,CLR,0.00,VWS V14.01,2013-11-10 04:33:00,
2013-11-09 22:34:00,46.6,22.4,29.44,NW,316,4.5,7.6,38,0.00,,CLR,0.00,VWS V14.01,2013-11-10 04:34:00,
2013-11-09 22:35:00,46.6,22.4,29.44,NNW,332,4.0,4.9,38,0.00,,CLR,0.00,VWS V14.01,2013-11-10 04:35:00,
2013-11-09 22:36:00,46.6,22.4,29.44,NW,307,6.3,6.3,38,0.00,,CLR,0.00,VWS V14.01,2013-11-10 04:36:00,
2013-11-09 22:37:00,46.8,22.5,29.44,NW,311,5.8,5.8,38,0.00,,CLR,0.00,VWS V14.01,2013-11-10 04:37:00,
2013-11-09 22:39:00,46.6,22.4,29.44,NNW,327,4.9,5.4,38,0.00,,CLR,0.00,VWS V14.01,2013-11-10 04:39:00,
2013-11-09 22:40:00,46.6,22.4,29.47,NW,323,5.8,6.7,38,0.00,,CLR,0.00,VWS V14.01,2013-11-10 04:40:00,
2013-11-09 22:42:00,46.8,22.5,29.47,NNW,328,6.3,7.6,38,0.00,,CLR,0.00,VWS V14.01,2013-11-10 04:42:00,
2013-11-09 22:45:00,46.6,22.4,29.47,NW,326,5.4,6.3,38,0.00,,CLR,0.00,VWS V14.01,2013-11-10 04:45:00,
2013-11-09 22:46:00,46.6,22.4,29.47,NNW,327,6.7,6.7,38,0.00,,CLR,0.00,VWS V14.01,2013-11-10 04:46:00,
2013-11-09 22:48:00,46.6,22.4,29.47,NW,325,5.4,6.3,38,0.00,,CLR,0.00,VWS V14.01,2013-11-10 04:48:00,
2013-11-09 22:50:00,46.4,22.2,29.47,NW,316,6.3,6.3,38,0.00,,CLR,0.00,VWS V14.01,2013-11-10 04:50:00,
2013-11-09 22:51:00,46.4,22.2,29.47,NNW,338,6.3,6.3,38,0.00,,CLR,0.00,VWS V14.01,2013-11-10 04:51:00,
2013-11-09 22:53:00,46.4,22.2,29.47,NW,323,8.3,8.3,38,0.00,,CLR,0.00,VWS V14.01,2013-11-10 04:53:00,
2013-11-09 22:55:00,46.8,22.5,29.47,NW,323,8.7,8.7,38,0.00,,CLR,0.00,VWS V14.01,2013-11-10 04:55:00,
2013-11-09 22:56:00,46.9,22.7,29.47,NNW,328,6.3,8.3,38,0.00,,CLR,0.00,VWS V14.01,2013-11-10 04:56:00,
2013-11-09 22:57:00,46.9,22.7,29.47,NNW,327,7.2,7.2,38,0.00,,CLR,0.00,VWS V14.01,2013-11-10 04:57:00,
2013-11-09 22:58:00,46.9,22.7,29.47,NNW,328,4.9,6.3,38,0.00,,CLR,0.00,VWS V14.01,2013-11-10 04:58:00,
2013-11-09 22:59:00,46.9,22.7,29.47,NNW,328,5.8,5.8,38,0.00,,CLR,0.00,VWS V14.01,2013-11-10 04:59:00,
2013-11-09 23:01:00,46.6,22.4,29.47,NNW,338,5.8,5.8,38,0.00,,CLR,0.00,VWS V14.01,2013-11-10 05:01:00,
2013-11-09 23:06:00,46.4,22.2,29.47,NNW,336,5.4,5.4,38,0.00,,CLR,0.00,VWS V14.01,2013-11-10 05:06:00,
2013-11-09 23:07:00,46.4,22.2,29.47,NW,315,6.3,6.3,38,0.00,,CLR,0.00,VWS V14.01,2013-11-10 05:07:00,
2013-11-09 23:08:00,46.4,22.2,29.47,NW,322,5.4,6.3,38,0.00,,CLR,0.00,VWS V14.01,2013-11-10 05:08:00,
2013-11-09 23:11:00,46.0,23.1,29.47,NNW,336,6.3,6.3,40,0.00,,CLR,0.00,VWS V14.01,2013-11-10 05:11:00,
2013-11-09 23:12:00,46.0,23.1,29.47,NNW,339,5.8,6.3,40,0.00,,CLR,0.00,VWS V14.01,2013-11-10 05:12:00,
2013-11-09 23:13:00,46.0,23.1,29.47,NNW,331,5.8,6.3,40,0.00,,CLR,0.00,VWS V14.01,2013-11-10 05:13:00,
2013-11-09 23:14:00,45.9,22.9,29.47,NNW,334,5.4,5.8,40,0.00,,CLR,0.00,VWS V14.01,2013-11-10 05:14:00,
2013-11-09 23:17:00,45.7,22.8,29.47,NNW,341,5.4,5.4,40,0.00,,CLR,0.00,VWS V14.01,2013-11-10 05:17:00,
2013-11-09 23:18:00,45.7,22.8,29.47,NNW,337,5.8,5.8,40,0.00,,CLR,0.00,VWS V14.01,2013-11-10 05:18:00,
2013-11-09 23:19:00,45.5,22.6,29.47,North,353,5.8,5.8,40,0.00,,CLR,0.00,VWS V14.01,2013-11-10 05:19:00,
2013-11-09 23:20:00,45.5,22.6,29.47,NNW,329,5.8,6.7,40,0.00,,CLR,0.00,VWS V14.01,2013-11-10 05:20:00,
2013-11-09 23:23:00,45.7,22.8,29.47,NNW,330,5.8,5.8,40,0.00,,CLR,0.00,VWS V14.01,2013-11-10 05:23:00,
2013-11-09 23:24:00,45.7,22.8,29.47,NNW,327,5.8,5.8,40,0.00,,CLR,0.00,VWS V14.01,2013-11-10 05:24:00,
2013-11-09 23:25:00,45.7,22.8,29.47,NNW,328,6.3,9.2,40,0.00,,CLR,0.00,VWS V14.01,2013-11-10 05:25:00,
2013-11-09 23:28:00,45.7,22.8,29.47,NNW,339,5.4,5.4,40,0.00,,CLR,0.00,VWS V14.01,2013-11-10 05:28:00,
2013-11-09 23:29:00,45.7,22.8,29.47,NW,322,8.3,8.3,40,0.00,,CLR,0.00,VWS V14.01,2013-11-10 05:29:00,
2013-11-09 23:30:00,45.7,22.8,29.47,NNW,343,5.8,5.8,40,0.00,,CLR,0.00,VWS V14.01,2013-11-10 05:30:00,
2013-11-09 23:31:00,45.5,22.6,29.47,NNW,333,5.8,5.8,40,0.00,,CLR,0.00,VWS V14.01,2013-11-10 05:31:00,
2013-11-09 23:33:00,45.3,22.4,29.47,NNW,329,6.3,8.3,40,0.00,,CLR,0.00,VWS V14.01,2013-11-10 05:33:00,
2013-11-09 23:35:00,45.5,22.6,29.47,NW,324,10.1,10.1,40,0.00,,CLR,0.00,VWS V14.01,2013-11-10 05:35:00,
2013-11-09 23:36:00,45.7,22.8,29.47,NNW,342,7.6,9.6,40,0.00,,CLR,0.00,VWS V14.01,2013-11-10 05:36:00,
2013-11-09 23:37:00,45.9,22.9,29.47,NW,324,6.3,8.7,40,0.00,,CLR,0.00,VWS V14.01,2013-11-10 05:37:00,
2013-11-09 23:39:00,46.0,23.1,29.50,NNW,339,8.1,8.1,40,0.00,,CLR,0.00,VWS V14.01,2013-11-10 05:39:00,
2013-11-09 23:41:00,46.0,23.1,29.50,NNW,332,8.1,8.1,40,0.00,,CLR,0.00,VWS V14.01,2013-11-10 05:41:00,
2013-11-09 23:42:00,45.9,22.9,29.50,NNW,327,6.3,8.1,40,0.00,,CLR,0.00,VWS V14.01,2013-11-10 05:42:00,
2013-11-09 23:43:00,45.9,22.9,29.50,NW,314,6.7,10.5,40,0.00,,CLR,0.00,VWS V14.01,2013-11-10 05:43:00,
2013-11-09 23:44:00,45.9,22.9,29.50,NW,324,6.3,6.3,40,0.00,,CLR,0.00,VWS V14.01,2013-11-10 05:44:00,
2013-11-09 23:45:00,45.5,22.6,29.50,NNW,330,8.1,8.7,40,0.00,,CLR,0.00,VWS V14.01,2013-11-10 05:45:00,
2013-11-09 23:46:00,45.5,22.6,29.50,NNW,329,7.6,8.7,40,0.00,,CLR,0.00,VWS V14.01,2013-11-10 05:46:00,
2013-11-09 23:48:00,45.5,22.6,29.50,NW,326,7.6,8.3,40,0.00,,CLR,0.00,VWS V14.01,2013-11-10 05:48:00,
2013-11-09 23:49:00,45.5,22.6,29.50,NNW,327,7.6,8.1,40,0.00,,CLR,0.00,VWS V14.01,2013-11-10 05:49:00,
2013-11-09 23:50:00,45.5,22.6,29.50,North,350,6.3,8.7,40,0.00,,CLR,0.00,VWS V14.01,2013-11-10 05:50:00,
2013-11-09 23:52:00,45.3,22.4,29.50,North,357,6.3,8.7,40,0.00,,CLR,0.00,VWS V14.01,2013-11-10 05:52:00,
2013-11-09 23:53:00,45.3,22.4,29.50,NW,324,8.7,8.7,40,0.00,,CLR,0.00,VWS V14.01,2013-11-10 05:53:00,
2013-11-09 23:54:00,45.3,22.4,29.50,NNW,346,8.1,8.7,40,0.00,,CLR,0.00,VWS V14.01,2013-11-10 05:54:00,
2013-11-09 23:55:00,45.3,22.4,29.50,NNW,330,8.3,8.3,40,0.00,,CLR,0.00,VWS V14.01,2013-11-10 05:55:00,
2013-11-09 23:56:00,45.3,22.4,29.50,NW,325,8.1,8.7,40,0.00,,CLR,0.00,VWS V14.01,2013-11-10 05:56:00,
2013-11-09 23:57:00,45.1,22.3,29.50,NNW,331,5.8,8.1,40,0.00,,CLR,0.00,VWS V14.01,2013-11-10 05:57:00,
2013-11-09 23:58:00,45.1,22.3,29.50,NNW,331,6.3,8.1,40,0.00,,CLR,0.00,VWS V14.01,2013-11-10 05:58:00,
2013-11-09 23:59:00,45.1,22.3,29.50,NNW,337,6.3,8.1,40,0.00,,CLR,0.00,VWS V14.01,2013-11-10 05:59:00,